| time (UTC) | temp F | wind direction | speed MPH | gust MPH | rain 1hr in | rain 24hr in | rain mn in | humidity % | barometer mb |
| 20260502130652 | 53 | 25 | 3.0 | 4.0 | 0.01 | 1.01 | 0.17 | 95 | 1011.2 |
| 20260502130551 | 53 | 30 | 3.0 | 4.0 | 0.01 | 1.02 | 0.17 | 96 | 1011.2 |
| 20260502130451 | 53 | 30 | 2.0 | 4.0 | 0.01 | 1.02 | 0.17 | 96 | 1011.1 |
| 20260502130351 | 53 | 16 | 2.0 | 5.0 | 0.01 | 1.02 | 0.17 | 96 | 1011.1 |
| 20260502130252 | 53 | 13 | 2.0 | 5.0 | 0.01 | 1.02 | 0.17 | 95 | 1011.2 |
| 20260502130151 | 53 | 0 | 3.0 | 5.0 | 0.01 | 1.02 | 0.17 | 95 | 1011.2 |
| 20260502123751 | 52 | 0 | 2.0 | 3.0 | 0.02 | 1.04 | 0.17 | 95 | 1010.8 |
| 20260502123650 | 52 | 354 | 2.0 | 3.0 | 0.02 | 1.03 | 0.16 | 95 | 1010.8 |
| 20260502123552 | 52 | 351 | 2.0 | 3.0 | 0.01 | 1.03 | 0.16 | 95 | 1010.8 |
| 20260502123450 | 52 | 350 | 2.0 | 3.0 | 0.01 | 1.03 | 0.16 | 95 | 1010.9 |
| 20260502123350 | 52 | 348 | 2.0 | 3.0 | 0.01 | 1.03 | 0.16 | 95 | 1010.7 |
| 20260502123251 | 52 | 347 | 2.0 | 3.0 | 0.01 | 1.03 | 0.16 | 95 | 1010.7 |
| 20260502123152 | 52 | 345 | 2.0 | 3.0 | 0.01 | 1.03 | 0.16 | 95 | 1010.7 |
| 20260502123050 | 52 | 351 | 2.0 | 3.0 | 0.01 | 1.03 | 0.16 | 95 | 1010.6 |
| 20260502122951 | 52 | 350 | 2.0 | 3.0 | 0.01 | 1.03 | 0.16 | 95 | 1010.7 |
| 20260502122851 | 52 | 350 | 2.0 | 4.0 | 0.01 | 1.03 | 0.16 | 95 | 1010.6 |
| 20260502122750 | 52 | 351 | 2.0 | 4.0 | 0.01 | 1.04 | 0.16 | 95 | 1010.6 |
| 20260502122649 | 52 | 348 | 2.0 | 4.0 | 0.01 | 1.04 | 0.16 | 95 | 1010.6 |
| 20260502122547 | 52 | 345 | 2.0 | 5.0 | 0.01 | 1.04 | 0.16 | 95 | 1010.5 |
| 20260502122446 | 52 | 358 | 2.0 | 5.0 | 0.01 | 1.04 | 0.16 | 95 | 1010.5 |
| 20260502122344 | 52 | 0 | 2.0 | 5.0 | 0.01 | 1.04 | 0.16 | 95 | 1010.5 |
| 20260502122242 | 52 | 1 | 2.0 | 5.0 | 0.01 | 1.04 | 0.16 | 95 | 1010.5 |
| 20260502122141 | 52 | 1 | 2.0 | 5.0 | 0.01 | 1.04 | 0.16 | 95 | 1010.5 |
| 20260502122039 | 52 | 350 | 2.0 | 5.0 | 0.01 | 1.04 | 0.16 | 95 | 1010.5 |
| 20260502121938 | 52 | 343 | 2.0 | 5.0 | 0.01 | 1.04 | 0.16 | 95 | 1010.5 |
| 20260502121837 | 52 | 345 | 2.0 | 5.0 | 0.01 | 1.04 | 0.16 | 95 | 1010.5 |
| 20260502121735 | 52 | 345 | 3.0 | 5.0 | 0.01 | 1.04 | 0.16 | 95 | 1010.5 |
| 20260502121633 | 52 | 343 | 3.0 | 5.0 | 0.01 | 1.04 | 0.16 | 95 | 1010.5 |
| 20260502121532 | 52 | 329 | 1.0 | 4.0 | 0.01 | 1.04 | 0.16 | 95 | 1010.5 |
| 20260502121431 | 52 | 1 | 0.0 | 4.0 | 0.01 | 1.04 | 0.16 | 95 | 1010.5 |
| 20260502121331 | 51 | 1 | 1.0 | 4.0 | 0.01 | 1.05 | 0.16 | 95 | 1010.3 |
| 20260502121232 | 51 | 1 | 2.0 | 4.0 | 0.01 | 1.05 | 0.16 | 95 | 1010.4 |
| 20260502121132 | 51 | 1 | 3.0 | 4.0 | 0.01 | 1.05 | 0.16 | 95 | 1010.3 |
| 20260502121030 | 51 | 351 | 3.0 | 4.0 | 0.01 | 1.05 | 0.16 | 95 | 1010.3 |
| 20260502120931 | 51 | 351 | 3.0 | 4.0 | 0.01 | 1.05 | 0.16 | 95 | 1010.3 |
| 20260502120832 | 51 | 341 | 2.0 | 4.0 | 0.01 | 1.05 | 0.16 | 95 | 1010.4 |
| 20260502120731 | 51 | 341 | 2.0 | 5.0 | 0.01 | 1.05 | 0.16 | 95 | 1010.3 |
| 20260502120631 | 51 | 354 | 2.0 | 5.0 | 0.01 | 1.05 | 0.16 | 95 | 1010.2 |
| 20260502120532 | 51 | 354 | 2.0 | 5.0 | 0.01 | 1.05 | 0.16 | 95 | 1010.2 |
| 20260502120431 | 51 | 1 | 3.0 | 5.0 | 0.01 | 1.05 | 0.16 | 95 | 1010.2 |
| 20260502120330 | 51 | 347 | 3.0 | 5.0 | 0.01 | 1.05 | 0.16 | 95 | 1010.1 |
| 20260502120228 | 51 | 314 | 3.0 | 5.0 | 0.01 | 1.05 | 0.16 | 95 | 1010.2 |
| 20260502120127 | 51 | 351 | 3.0 | 5.0 | 0.01 | 1.05 | 0.16 | 95 | 1010.2 |
| 20260502115923 | 51 | 347 | 3.0 | 5.0 | 0.01 | 1.05 | 0.16 | 95 | 1010.2 |
| 20260502115822 | 51 | 347 | 2.0 | 5.0 | 0.01 | 1.05 | 0.16 | 95 | 1010.2 |
| 20260502115720 | 51 | 340 | 2.0 | 4.0 | 0.02 | 1.05 | 0.16 | 95 | 1010.1 |
| 20260502115619 | 51 | 347 | 1.0 | 4.0 | 0.02 | 1.05 | 0.16 | 95 | 1010.3 |
| 20260502115517 | 51 | 347 | 2.0 | 4.0 | 0.02 | 1.05 | 0.16 | 95 | 1010.2 |
| 20260502115416 | 51 | 347 | 2.0 | 4.0 | 0.02 | 1.05 | 0.16 | 95 | 1010.2 |
| 20260502115314 | 51 | 345 | 2.0 | 4.0 | 0.02 | 1.05 | 0.16 | 95 | 1010.1 |
| 20260502115213 | 51 | 343 | 1.0 | 4.0 | 0.02 | 1.06 | 0.16 | 95 | 1010.1 |
| 20260502115111 | 51 | 354 | 0.0 | 0.0 | 0.02 | 1.06 | 0.16 | 95 | 1010.1 |
| 20260502115010 | 52 | 355 | 0.0 | 0.0 | 0.02 | 1.06 | 0.16 | 95 | 1010.1 |
| 20260502114908 | 52 | 0 | 0.0 | 0.0 | 0.02 | 1.06 | 0.16 | 95 | 1010.1 |
| 20260502114806 | 52 | 0 | 0.0 | 0.0 | 0.02 | 1.06 | 0.16 | 95 | 1010.0 |
| 20260502114705 | 52 | 0 | 0.0 | 0.0 | 0.02 | 1.05 | 0.15 | 95 | 1010.0 |
| 20260502114604 | 52 | 0 | 0.0 | 0.0 | 0.01 | 1.05 | 0.15 | 95 | 1010.1 |
| 20260502114504 | 52 | 0 | 0.0 | 0.0 | 0.01 | 1.05 | 0.15 | 95 | 1010.1 |
| 20260502114404 | 52 | 0 | 0.0 | 0.0 | 0.01 | 1.05 | 0.15 | 95 | 1010.0 |
| 20260502114304 | 52 | 21 | 0.0 | 0.0 | 0.01 | 1.05 | 0.15 | 95 | 1010.0 |
| 20260502114204 | 52 | 21 | 0.0 | 0.0 | 0.01 | 1.05 | 0.15 | 95 | 1009.9 |
| 20260502114103 | 52 | 21 | 0.0 | 0.0 | 0.01 | 1.05 | 0.15 | 95 | 1010.0 |
| 20260502114002 | 52 | 21 | 0.0 | 0.0 | 0.01 | 1.06 | 0.15 | 95 | 1009.9 |
| 20260502113904 | 52 | 23 | 0.0 | 0.0 | 0.01 | 1.06 | 0.15 | 95 | 1009.9 |
| 20260502113802 | 52 | 24 | 0.0 | 0.0 | 0.01 | 1.06 | 0.15 | 95 | 1009.9 |
| 20260502113703 | 52 | 1 | 0.0 | 0.0 | 0.01 | 1.06 | 0.15 | 95 | 1010.1 |
| 20260502113602 | 52 | 357 | 0.0 | 2.0 | 0.01 | 1.06 | 0.15 | 95 | 1010.0 |
| 20260502113504 | 52 | 0 | 0.0 | 3.0 | 0.01 | 1.06 | 0.15 | 95 | 1010.0 |
| 20260502113401 | 52 | 0 | 0.0 | 3.0 | 0.01 | 1.06 | 0.15 | 95 | 1009.9 |
| 20260502113301 | 52 | 8 | 0.0 | 3.0 | 0.01 | 1.06 | 0.15 | 95 | 1009.9 |
| 20260502113203 | 52 | 8 | 0.0 | 3.0 | 0.01 | 1.06 | 0.15 | 95 | 1009.8 |
| 20260502113103 | 52 | 25 | 0.0 | 3.0 | 0.01 | 1.06 | 0.15 | 95 | 1009.8 |
| 20260502113003 | 52 | 25 | 0.0 | 3.0 | 0.01 | 1.06 | 0.15 | 95 | 1009.7 |
| 20260502112902 | 52 | 25 | 0.0 | 4.0 | 0.01 | 1.06 | 0.15 | 95 | 1009.7 |
| 20260502112803 | 52 | 25 | 0.0 | 4.0 | 0.01 | 1.06 | 0.15 | 95 | 1009.8 |
| 20260502112703 | 52 | 25 | 1.0 | 4.0 | 0.01 | 1.06 | 0.15 | 95 | 1009.7 |
| 20260502112602 | 52 | 25 | 1.0 | 4.0 | 0.01 | 1.07 | 0.15 | 95 | 1009.7 |
| 20260502112505 | 52 | 25 | 1.0 | 4.0 | 0.01 | 1.07 | 0.15 | 95 | 1009.6 |
| 20260502112403 | 52 | 25 | 1.0 | 4.0 | 0.01 | 1.07 | 0.15 | 95 | 1009.7 |
| 20260502112301 | 52 | 23 | 1.0 | 4.0 | 0.01 | 1.07 | 0.15 | 95 | 1009.6 |
| 20260502112203 | 52 | 23 | 2.0 | 4.0 | 0.01 | 1.07 | 0.15 | 95 | 1009.6 |
| 20260502112103 | 52 | 23 | 2.0 | 4.0 | 0.01 | 1.07 | 0.15 | 95 | 1009.6 |
| 20260502112002 | 52 | 13 | 1.0 | 4.0 | 0.01 | 1.07 | 0.15 | 95 | 1009.5 |
| 20260502111902 | 52 | 37 | 1.0 | 4.0 | 0.02 | 1.07 | 0.15 | 95 | 1009.5 |
| 20260502111803 | 52 | 20 | 2.0 | 4.0 | 0.02 | 1.07 | 0.15 | 95 | 1009.5 |
| 20260502111702 | 52 | 8 | 3.0 | 4.0 | 0.02 | 1.07 | 0.15 | 95 | 1009.6 |
| 20260502111602 | 52 | 4 | 2.0 | 4.0 | 0.02 | 1.07 | 0.15 | 95 | 1009.6 |
| 20260502111503 | 52 | 28 | 0.0 | 3.0 | 0.02 | 1.08 | 0.15 | 95 | 1009.6 |
| 20260502111402 | 52 | 17 | 0.0 | 4.0 | 0.02 | 1.08 | 0.15 | 95 | 1009.6 |
| 20260502111302 | 52 | 17 | 2.0 | 4.0 | 0.02 | 1.08 | 0.15 | 95 | 1009.6 |
| 20260502111202 | 52 | 28 | 1.0 | 4.0 | 0.02 | 1.08 | 0.15 | 95 | 1009.6 |
| 20260502111103 | 52 | 343 | 0.0 | 4.0 | 0.02 | 1.08 | 0.15 | 95 | 1009.6 |
| 20260502111003 | 52 | 1 | 0.0 | 4.0 | 0.02 | 1.08 | 0.15 | 95 | 1009.6 |
| 20260502110901 | 52 | 1 | 0.0 | 4.0 | 0.02 | 1.08 | 0.15 | 95 | 1009.5 |
| 20260502110800 | 52 | 1 | 0.0 | 4.0 | 0.02 | 1.08 | 0.15 | 95 | 1009.5 |
| 20260502110658 | 52 | 1 | 0.0 | 4.0 | 0.02 | 1.08 | 0.15 | 95 | 1009.4 |
| 20260502110556 | 52 | 1 | 2.0 | 4.0 | 0.02 | 1.08 | 0.15 | 95 | 1009.5 |
| 20260502110454 | 52 | 1 | 1.0 | 4.0 | 0.02 | 1.08 | 0.15 | 95 | 1009.4 |
| 20260502110353 | 52 | 1 | 0.0 | 0.0 | 0.02 | 1.08 | 0.15 | 95 | 1009.5 |
| 20260502110252 | 52 | 1 | 0.0 | 0.0 | 0.02 | 1.08 | 0.15 | 95 | 1009.4 |
| 20260502110150 | 52 | 28 | 0.0 | 0.0 | 0.02 | 1.08 | 0.15 | 95 | 1009.4 |
| 20260502110051 | 52 | 28 | 0.0 | 0.0 | 0.02 | 1.09 | 0.15 | 95 | 1009.4 |
| 20260502105949 | 52 | 28 | 0.0 | 1.0 | 0.02 | 1.09 | 0.15 | 95 | 1009.4 |
| 20260502105850 | 52 | 30 | 0.0 | 3.0 | 0.02 | 1.09 | 0.15 | 95 | 1009.4 |
| 20260502105748 | 52 | 30 | 0.0 | 3.0 | 0.01 | 1.08 | 0.14 | 95 | 1009.4 |
| 20260502105648 | 52 | 30 | 0.0 | 3.0 | 0.01 | 1.08 | 0.14 | 95 | 1009.3 |
| 20260502105549 | 52 | 27 | 0.0 | 3.0 | 0.01 | 1.08 | 0.14 | 95 | 1009.4 |
| 20260502105450 | 52 | 27 | 0.0 | 3.0 | 0.01 | 1.08 | 0.14 | 95 | 1009.5 |
| 20260502105348 | 52 | 28 | 0.0 | 3.0 | 0.01 | 1.08 | 0.14 | 95 | 1009.5 |
| 20260502105249 | 52 | 27 | 0.0 | 3.0 | 0.01 | 1.08 | 0.14 | 95 | 1009.6 |
| 20260502105148 | 52 | 32 | 0.0 | 3.0 | 0.01 | 1.08 | 0.14 | 95 | 1009.5 |
| 20260502105048 | 52 | 32 | 0.0 | 5.0 | 0.01 | 1.08 | 0.14 | 95 | 1009.5 |
| 20260502104948 | 52 | 32 | 0.0 | 5.0 | 0.01 | 1.08 | 0.14 | 95 | 1009.5 |
| 20260502104849 | 52 | 32 | 0.0 | 5.0 | 0.01 | 1.08 | 0.14 | 95 | 1009.5 |
| 20260502104749 | 52 | 32 | 0.0 | 5.0 | 0.01 | 1.08 | 0.14 | 95 | 1009.4 |
| 20260502104648 | 52 | 34 | 0.0 | 5.0 | 0.01 | 1.09 | 0.14 | 95 | 1009.4 |
| 20260502104548 | 52 | 31 | 0.0 | 5.0 | 0.01 | 1.09 | 0.14 | 95 | 1009.4 |
| 20260502104448 | 52 | 31 | 0.0 | 5.0 | 0.02 | 1.09 | 0.14 | 95 | 1009.5 |
| 20260502104348 | 52 | 31 | 0.0 | 5.0 | 0.02 | 1.09 | 0.14 | 95 | 1009.5 |
| 20260502104248 | 52 | 32 | 1.0 | 5.0 | 0.02 | 1.09 | 0.14 | 95 | 1009.5 |
| 20260502104148 | 52 | 32 | 2.0 | 5.0 | 0.02 | 1.09 | 0.14 | 95 | 1009.5 |
| 20260502104049 | 52 | 3 | 2.0 | 4.0 | 0.02 | 1.09 | 0.14 | 95 | 1009.5 |
| 20260502103947 | 52 | 3 | 2.0 | 4.0 | 0.02 | 1.09 | 0.14 | 95 | 1009.5 |
| 20260502103848 | 52 | 3 | 2.0 | 5.0 | 0.02 | 1.09 | 0.14 | 95 | 1009.4 |
| 20260502103749 | 52 | 6 | 2.0 | 5.0 | 0.02 | 1.09 | 0.14 | 95 | 1009.4 |
| 20260502103647 | 52 | 25 | 2.0 | 5.0 | 0.02 | 1.09 | 0.14 | 95 | 1009.3 |
| 20260502103547 | 52 | 355 | 2.0 | 5.0 | 0.02 | 1.09 | 0.14 | 95 | 1009.2 |
| 20260502103449 | 52 | 351 | 2.0 | 5.0 | 0.02 | 1.09 | 0.14 | 95 | 1009.3 |
| 20260502103349 | 52 | 7 | 2.0 | 5.0 | 0.02 | 1.09 | 0.14 | 95 | 1009.3 |
| 20260502103247 | 52 | 357 | 2.0 | 5.0 | 0.02 | 1.09 | 0.14 | 95 | 1009.4 |
| 20260502103147 | 52 | 354 | 3.0 | 5.0 | 0.02 | 1.09 | 0.14 | 94 | 1009.4 |
| 20260502103049 | 52 | 350 | 3.0 | 5.0 | 0.02 | 1.09 | 0.14 | 95 | 1009.4 |
| 20260502102947 | 52 | 305 | 2.0 | 5.0 | 0.02 | 1.09 | 0.14 | 94 | 1009.3 |
| 20260502102848 | 52 | 7 | 2.0 | 3.0 | 0.02 | 1.09 | 0.14 | 94 | 1009.4 |
| 20260502102748 | 52 | 7 | 2.0 | 3.0 | 0.02 | 1.09 | 0.14 | 94 | 1009.3 |
| 20260502102649 | 52 | 6 | 2.0 | 3.0 | 0.02 | 1.09 | 0.14 | 94 | 1009.3 |
| 20260502102548 | 52 | 6 | 2.0 | 3.0 | 0.02 | 1.09 | 0.14 | 94 | 1009.2 |
| 20260502102447 | 52 | 16 | 2.0 | 3.0 | 0.02 | 1.09 | 0.14 | 94 | 1009.2 |
| 20260502102349 | 52 | 28 | 2.0 | 3.0 | 0.02 | 1.10 | 0.14 | 94 | 1009.2 |
| 20260502102248 | 52 | 30 | 2.0 | 3.0 | 0.02 | 1.10 | 0.14 | 94 | 1009.2 |
| 20260502102147 | 52 | 28 | 2.0 | 3.0 | 0.02 | 1.10 | 0.14 | 94 | 1009.2 |
| 20260502102047 | 52 | 31 | 2.0 | 3.0 | 0.02 | 1.10 | 0.14 | 94 | 1009.1 |
| 20260502101948 | 52 | 31 | 2.0 | 3.0 | 0.02 | 1.09 | 0.13 | 94 | 1009.2 |
| 20260502101847 | 52 | 31 | 2.0 | 3.0 | 0.02 | 1.09 | 0.13 | 94 | 1009.1 |
| 20260502101748 | 52 | 32 | 2.0 | 3.0 | 0.02 | 1.09 | 0.13 | 94 | 1009.1 |
| 20260502101648 | 52 | 8 | 2.0 | 3.0 | 0.02 | 1.09 | 0.13 | 95 | 1009.1 |
| 20260502101548 | 52 | 3 | 2.0 | 4.0 | 0.02 | 1.09 | 0.13 | 95 | 1009.0 |
| 20260502101447 | 52 | 1 | 2.0 | 4.0 | 0.02 | 1.09 | 0.13 | 95 | 1009.1 |
| 20260502101347 | 52 | 1 | 2.0 | 4.0 | 0.02 | 1.09 | 0.13 | 95 | 1009.0 |
| 20260502101247 | 52 | 7 | 2.0 | 4.0 | 0.02 | 1.09 | 0.13 | 95 | 1009.0 |
| 20260502101148 | 52 | 8 | 2.0 | 4.0 | 0.02 | 1.09 | 0.13 | 95 | 1009.1 |
| 20260502101047 | 53 | 4 | 2.0 | 4.0 | 0.02 | 1.09 | 0.13 | 95 | 1009.0 |
| 20260502100948 | 52 | 14 | 2.0 | 4.0 | 0.02 | 1.09 | 0.13 | 95 | 1009.1 |
| 20260502100848 | 53 | 18 | 2.0 | 4.0 | 0.02 | 1.10 | 0.13 | 95 | 1009.0 |
| 20260502100747 | 53 | 23 | 2.0 | 5.0 | 0.02 | 1.10 | 0.13 | 94 | 1009.0 |
| 20260502100648 | 53 | 30 | 2.0 | 5.0 | 0.02 | 1.10 | 0.13 | 94 | 1009.0 |
| 20260502100547 | 53 | 343 | 2.0 | 5.0 | 0.02 | 1.10 | 0.13 | 95 | 1009.0 |
| 20260502100447 | 53 | 10 | 2.0 | 5.0 | 0.02 | 1.10 | 0.13 | 95 | 1008.9 |
| 20260502100347 | 53 | 11 | 2.0 | 5.0 | 0.02 | 1.10 | 0.13 | 94 | 1008.9 |
| 20260502100248 | 53 | 8 | 2.0 | 5.0 | 0.02 | 1.10 | 0.13 | 94 | 1008.8 |
| 20260502100146 | 53 | 1 | 2.0 | 5.0 | 0.02 | 1.10 | 0.13 | 94 | 1008.9 |
| 20260502091447 | 53 | 48 | 2.0 | 3.0 | 0.02 | 1.12 | 0.11 | 95 | 1008.0 |
| 20260502091346 | 53 | 48 | 1.0 | 3.0 | 0.03 | 1.12 | 0.11 | 95 | 1008.0 |
| 20260502091246 | 53 | 48 | 0.0 | 3.0 | 0.03 | 1.12 | 0.11 | 95 | 1008.0 |
| 20260502091146 | 53 | 51 | 0.0 | 2.0 | 0.03 | 1.12 | 0.11 | 95 | 1007.9 |
| 20260502091046 | 53 | 51 | 0.0 | 2.0 | 0.03 | 1.12 | 0.11 | 95 | 1007.9 |
| 20260502090945 | 53 | 52 | 0.0 | 2.0 | 0.03 | 1.12 | 0.11 | 95 | 1007.9 |
| 20260502090846 | 53 | 52 | 0.0 | 2.0 | 0.03 | 1.12 | 0.11 | 95 | 1008.0 |
| 20260502090747 | 53 | 52 | 0.0 | 2.0 | 0.03 | 1.12 | 0.11 | 95 | 1008.0 |
| 20260502090646 | 53 | 52 | 0.0 | 2.0 | 0.03 | 1.12 | 0.11 | 95 | 1007.9 |
| 20260502090546 | 53 | 52 | 0.0 | 2.0 | 0.03 | 1.12 | 0.11 | 95 | 1008.0 |
| 20260502090445 | 53 | 54 | 0.0 | 3.0 | 0.03 | 1.12 | 0.11 | 95 | 1007.9 |
| 20260502090347 | 53 | 54 | 1.0 | 3.0 | 0.03 | 1.12 | 0.11 | 95 | 1007.9 |
| 20260502090246 | 53 | 54 | 1.0 | 3.0 | 0.03 | 1.12 | 0.11 | 95 | 1007.9 |
| 20260502090146 | 53 | 54 | 0.0 | 3.0 | 0.03 | 1.13 | 0.11 | 95 | 1007.8 |
| 20260502071503 | 54 | 54 | 3.0 | 6.0 | 0.02 | 1.16 | 0.05 | 96 | 1007.5 |
| 20260502071402 | 54 | 62 | 3.0 | 6.0 | 0.02 | 1.16 | 0.05 | 96 | 1007.5 |
| 20260502071303 | 54 | 45 | 3.0 | 6.0 | 0.02 | 1.16 | 0.05 | 96 | 1007.5 |
| 20260502071203 | 54 | 20 | 3.0 | 6.0 | 0.02 | 1.16 | 0.05 | 96 | 1007.6 |
| 20260502071102 | 54 | 49 | 3.0 | 6.0 | 0.02 | 1.16 | 0.05 | 96 | 1007.5 |
| 20260502071003 | 54 | 56 | 3.0 | 6.0 | 0.02 | 1.16 | 0.05 | 97 | 1007.5 |
| 20260502070903 | 54 | 30 | 3.0 | 6.0 | 0.02 | 1.16 | 0.05 | 96 | 1007.5 |
| 20260502070802 | 54 | 49 | 3.0 | 6.0 | 0.02 | 1.16 | 0.05 | 97 | 1007.6 |
| 20260502070702 | 54 | 47 | 3.0 | 5.0 | 0.02 | 1.16 | 0.05 | 97 | 1007.6 |
| 20260502070603 | 54 | 28 | 3.0 | 6.0 | 0.02 | 1.16 | 0.05 | 97 | 1007.7 |
| 20260502070504 | 54 | 42 | 3.0 | 6.0 | 0.02 | 1.16 | 0.05 | 97 | 1007.7 |
| 20260502070402 | 54 | 52 | 2.0 | 6.0 | 0.02 | 1.16 | 0.05 | 97 | 1007.7 |
| 20260502070303 | 54 | 58 | 2.0 | 6.0 | 0.02 | 1.16 | 0.05 | 97 | 1007.7 |
| 20260502070204 | 54 | 68 | 3.0 | 6.0 | 0.02 | 1.16 | 0.05 | 97 | 1007.7 |
| 20260502070002 | 54 | 45 | 3.0 | 6.0 | 0.03 | 1.16 | 0.05 | 97 | 1007.6 |
| 20260502065903 | 54 | 37 | 3.0 | 6.0 | 0.03 | 1.16 | 0.05 | 97 | 1007.6 |
| 20260502065804 | 54 | 62 | 3.0 | 6.0 | 0.03 | 1.16 | 0.05 | 97 | 1007.7 |
| 20260502065702 | 54 | 51 | 3.0 | 6.0 | 0.03 | 1.16 | 0.05 | 97 | 1007.7 |
| 20260502065603 | 54 | 41 | 3.0 | 6.0 | 0.03 | 1.16 | 0.05 | 97 | 1007.7 |
| 20260502065504 | 54 | 41 | 3.0 | 6.0 | 0.03 | 1.16 | 0.05 | 97 | 1007.7 |
| 20260502065402 | 54 | 38 | 3.0 | 6.0 | 0.03 | 1.16 | 0.05 | 97 | 1007.8 |
| 20260502065301 | 54 | 37 | 3.0 | 6.0 | 0.03 | 1.16 | 0.05 | 97 | 1007.8 |
| 20260502065203 | 54 | 34 | 3.0 | 6.0 | 0.03 | 1.16 | 0.05 | 97 | 1007.8 |
| 20260502065103 | 54 | 48 | 4.0 | 7.0 | 0.03 | 1.16 | 0.05 | 97 | 1007.8 |
| 20260502065003 | 54 | 58 | 3.0 | 7.0 | 0.03 | 1.16 | 0.05 | 97 | 1007.8 |
| 20260502064902 | 54 | 38 | 3.0 | 7.0 | 0.03 | 1.16 | 0.05 | 97 | 1007.8 |
| 20260502064803 | 54 | 41 | 3.0 | 7.0 | 0.03 | 1.15 | 0.04 | 97 | 1007.9 |
| 20260502064702 | 54 | 38 | 4.0 | 7.0 | 0.02 | 1.15 | 0.04 | 97 | 1007.9 |
| 20260502064603 | 54 | 59 | 3.0 | 7.0 | 0.02 | 1.15 | 0.04 | 97 | 1007.9 |
| 20260502064504 | 54 | 44 | 3.0 | 7.0 | 0.02 | 1.15 | 0.04 | 97 | 1007.8 |
| 20260502064402 | 54 | 42 | 4.0 | 7.0 | 0.02 | 1.15 | 0.04 | 97 | 1007.8 |
| 20260502064302 | 54 | 39 | 4.0 | 7.0 | 0.02 | 1.15 | 0.04 | 97 | 1007.8 |
| 20260502064202 | 54 | 52 | 4.0 | 7.0 | 0.02 | 1.15 | 0.04 | 97 | 1007.8 |
| 20260502064102 | 54 | 42 | 4.0 | 7.0 | 0.02 | 1.15 | 0.04 | 97 | 1007.8 |
| 20260502064002 | 54 | 54 | 4.0 | 7.0 | 0.02 | 1.15 | 0.04 | 97 | 1007.7 |
| 20260502063903 | 54 | 42 | 4.0 | 9.0 | 0.02 | 1.15 | 0.04 | 97 | 1007.7 |
| 20260502063803 | 54 | 28 | 4.0 | 9.0 | 0.03 | 1.15 | 0.04 | 97 | 1007.7 |
| 20260502063703 | 54 | 35 | 3.0 | 9.0 | 0.03 | 1.15 | 0.04 | 97 | 1007.7 |
| 20260502063601 | 54 | 24 | 3.0 | 9.0 | 0.03 | 1.15 | 0.04 | 97 | 1007.7 |
| 20260502063504 | 54 | 14 | 2.0 | 9.0 | 0.03 | 1.15 | 0.04 | 97 | 1007.7 |
| 20260502063402 | 54 | 48 | 2.0 | 9.0 | 0.03 | 1.15 | 0.04 | 97 | 1007.6 |
| 20260502063302 | 54 | 49 | 3.0 | 9.0 | 0.03 | 1.15 | 0.04 | 97 | 1007.6 |
| 20260502063202 | 54 | 52 | 3.0 | 9.0 | 0.03 | 1.15 | 0.04 | 97 | 1007.6 |
| 20260502063103 | 54 | 59 | 4.0 | 9.0 | 0.03 | 1.15 | 0.04 | 97 | 1007.7 |
| 20260502063001 | 54 | 55 | 4.0 | 9.0 | 0.03 | 1.15 | 0.04 | 97 | 1007.6 |
| 20260502062902 | 54 | 41 | 3.0 | 6.0 | 0.03 | 1.15 | 0.04 | 97 | 1007.7 |
| 20260502062803 | 54 | 27 | 4.0 | 6.0 | 0.03 | 1.15 | 0.04 | 97 | 1007.7 |
| 20260502062702 | 54 | 42 | 3.0 | 6.0 | 0.03 | 1.15 | 0.04 | 97 | 1007.7 |
| 20260502062602 | 54 | 44 | 2.0 | 6.0 | 0.03 | 1.15 | 0.04 | 97 | 1007.6 |
| 20260502062503 | 54 | 47 | 2.0 | 6.0 | 0.03 | 1.14 | 0.03 | 97 | 1007.6 |
| 20260502062402 | 54 | 39 | 2.0 | 6.0 | 0.02 | 1.14 | 0.03 | 97 | 1007.6 |
| 20260502062305 | 54 | 35 | 3.0 | 6.0 | 0.02 | 1.14 | 0.03 | 97 | 1007.6 |
| 20260502062203 | 54 | 56 | 2.0 | 6.0 | 0.02 | 1.14 | 0.03 | 97 | 1007.5 |
| 20260502062103 | 54 | 58 | 3.0 | 6.0 | 0.02 | 1.14 | 0.03 | 97 | 1007.4 |
| 20260502062002 | 54 | 56 | 3.0 | 6.0 | 0.02 | 1.14 | 0.03 | 97 | 1007.4 |
| 20260502061901 | 54 | 49 | 3.0 | 6.0 | 0.02 | 1.14 | 0.03 | 97 | 1007.4 |
| 20260502061804 | 54 | 52 | 3.0 | 6.0 | 0.02 | 1.14 | 0.03 | 97 | 1007.4 |
| 20260502061704 | 54 | 55 | 3.0 | 6.0 | 0.02 | 1.14 | 0.03 | 97 | 1007.4 |
| 20260502061603 | 54 | 52 | 3.0 | 6.0 | 0.02 | 1.14 | 0.03 | 97 | 1007.4 |
| 20260502061502 | 54 | 58 | 3.0 | 6.0 | 0.02 | 1.14 | 0.03 | 97 | 1007.3 |
| 20260502061402 | 54 | 41 | 3.0 | 6.0 | 0.03 | 1.14 | 0.03 | 97 | 1007.3 |
| 20260502061303 | 54 | 39 | 3.0 | 6.0 | 0.03 | 1.14 | 0.03 | 97 | 1007.3 |
| 20260502061203 | 54 | 49 | 3.0 | 6.0 | 0.03 | 1.14 | 0.03 | 97 | 1007.3 |
| 20260502061058 | 54 | 71 | 3.0 | 6.0 | 0.03 | 1.14 | 0.03 | 97 | 1007.3 |
| 20260502060956 | 54 | 14 | 3.0 | 6.0 | 0.03 | 1.14 | 0.03 | 97 | 1007.4 |
| 20260502060856 | 54 | 37 | 3.0 | 6.0 | 0.03 | 1.14 | 0.03 | 97 | 1007.4 |
| 20260502060754 | 54 | 34 | 4.0 | 6.0 | 0.03 | 1.14 | 0.03 | 97 | 1007.5 |
| 20260502060653 | 54 | 45 | 3.0 | 10.0 | 0.03 | 1.14 | 0.03 | 97 | 1007.4 |
| 20260502060551 | 54 | 39 | 4.0 | 10.0 | 0.03 | 1.14 | 0.03 | 97 | 1007.5 |
| 20260502060449 | 54 | 45 | 4.0 | 10.0 | 0.03 | 1.14 | 0.03 | 97 | 1007.5 |
| 20260502060348 | 54 | 54 | 4.0 | 10.0 | 0.03 | 1.14 | 0.03 | 97 | 1007.5 |
| 20260502060246 | 54 | 75 | 4.0 | 10.0 | 0.03 | 1.14 | 0.03 | 97 | 1007.5 |
| 20260502060145 | 54 | 49 | 4.0 | 10.0 | 0.03 | 1.14 | 0.03 | 97 | 1007.5 |
| 20260502060044 | 54 | 34 | 3.0 | 10.0 | 0.03 | 1.13 | 0.02 | 97 | 1007.3 |
| 20260502055942 | 54 | 42 | 3.0 | 10.0 | 0.02 | 1.13 | 0.02 | 97 | 1007.4 |
| 20260502055841 | 54 | 41 | 4.0 | 10.0 | 0.02 | 1.13 | 0.02 | 97 | 1007.4 |
| 20260502055742 | 54 | 49 | 5.0 | 10.0 | 0.02 | 1.13 | 0.02 | 97 | 1007.3 |
| 20260502055643 | 54 | 20 | 5.0 | 7.0 | 0.02 | 1.13 | 0.02 | 97 | 1007.3 |
| 20260502055542 | 55 | 35 | 4.0 | 7.0 | 0.02 | 1.13 | 0.02 | 97 | 1007.3 |
| 20260502055441 | 55 | 54 | 4.0 | 7.0 | 0.02 | 1.13 | 0.02 | 97 | 1007.4 |
| 20260502055342 | 55 | 54 | 4.0 | 7.0 | 0.02 | 1.13 | 0.02 | 97 | 1007.3 |
| 20260502055243 | 55 | 39 | 4.0 | 7.0 | 0.03 | 1.13 | 0.02 | 97 | 1007.4 |
| 20260502055141 | 55 | 44 | 5.0 | 7.0 | 0.03 | 1.13 | 0.02 | 97 | 1007.4 |
| 20260502055041 | 55 | 34 | 4.0 | 7.0 | 0.03 | 1.13 | 0.02 | 97 | 1007.3 |
| 20260502054942 | 55 | 42 | 4.0 | 7.0 | 0.03 | 1.13 | 0.02 | 97 | 1007.4 |
| 20260502054841 | 55 | 78 | 4.0 | 7.0 | 0.03 | 1.13 | 0.02 | 97 | 1007.4 |
| 20260502054741 | 55 | 14 | 4.0 | 7.0 | 0.03 | 1.13 | 0.02 | 97 | 1007.4 |
| 20260502054641 | 55 | 35 | 4.0 | 6.0 | 0.03 | 1.13 | 0.02 | 97 | 1007.4 |
| 20260502054541 | 55 | 62 | 3.0 | 6.0 | 0.03 | 1.13 | 0.02 | 97 | 1007.5 |
| 20260502054442 | 55 | 31 | 3.0 | 5.0 | 0.03 | 1.14 | 0.02 | 97 | 1007.5 |
| 20260502054341 | 55 | 10 | 3.0 | 6.0 | 0.03 | 1.14 | 0.02 | 97 | 1007.5 |
| 20260502054242 | 55 | 35 | 3.0 | 6.0 | 0.03 | 1.14 | 0.02 | 97 | 1007.5 |
| 20260502054141 | 55 | 7 | 3.0 | 6.0 | 0.03 | 1.14 | 0.02 | 97 | 1007.5 |
| 20260502054041 | 55 | 35 | 3.0 | 6.0 | 0.03 | 1.14 | 0.02 | 97 | 1007.5 |
| 20260502053943 | 55 | 28 | 3.0 | 6.0 | 0.03 | 1.14 | 0.02 | 97 | 1007.5 |
| 20260502053841 | 55 | 28 | 3.0 | 6.0 | 0.03 | 1.13 | 0.01 | 97 | 1007.5 |
| 20260502053742 | 55 | 27 | 3.0 | 6.0 | 0.02 | 1.13 | 0.01 | 97 | 1007.5 |
| 20260502053641 | 55 | 42 | 4.0 | 6.0 | 0.02 | 1.13 | 0.01 | 97 | 1007.5 |
| 20260502053542 | 55 | 62 | 4.0 | 6.0 | 0.02 | 1.13 | 0.01 | 97 | 1007.5 |
| 20260502053441 | 55 | 34 | 4.0 | 6.0 | 0.02 | 1.13 | 0.01 | 97 | 1007.6 |
| 20260502053341 | 55 | 45 | 4.0 | 6.0 | 0.02 | 1.13 | 0.01 | 97 | 1007.5 |
| 20260502053242 | 55 | 21 | 3.0 | 6.0 | 0.02 | 1.13 | 0.01 | 97 | 1007.6 |
| 20260502053141 | 55 | 45 | 3.0 | 6.0 | 0.02 | 1.13 | 0.01 | 97 | 1007.5 |
| 20260502053042 | 55 | 48 | 3.0 | 6.0 | 0.02 | 1.13 | 0.01 | 97 | 1007.6 |
| 20260502052941 | 55 | 30 | 3.0 | 6.0 | 0.02 | 1.13 | 0.01 | 97 | 1007.6 |
| 20260502052842 | 55 | 45 | 3.0 | 6.0 | 0.02 | 1.13 | 0.01 | 97 | 1007.5 |
| 20260502052740 | 55 | 41 | 3.0 | 6.0 | 0.02 | 1.13 | 0.01 | 97 | 1007.5 |
| 20260502052641 | 55 | 28 | 3.0 | 6.0 | 0.02 | 1.13 | 0.01 | 97 | 1007.5 |
| 20260502052542 | 55 | 42 | 4.0 | 9.0 | 0.02 | 1.13 | 0.01 | 97 | 1007.5 |
| 20260502052440 | 55 | 44 | 4.0 | 9.0 | 0.02 | 1.13 | 0.01 | 97 | 1007.5 |
| 20260502052341 | 55 | 47 | 4.0 | 9.0 | 0.03 | 1.13 | 0.01 | 97 | 1007.5 |
| 20260502052242 | 55 | 30 | 4.0 | 9.0 | 0.03 | 1.13 | 0.01 | 97 | 1007.5 |
| 20260502052143 | 55 | 39 | 4.0 | 9.0 | 0.03 | 1.13 | 0.01 | 97 | 1007.4 |
| 20260502052041 | 55 | 44 | 4.0 | 9.0 | 0.03 | 1.13 | 0.01 | 97 | 1007.4 |
| 20260502051941 | 55 | 32 | 3.0 | 9.0 | 0.03 | 1.13 | 0.01 | 97 | 1007.4 |
| 20260502051841 | 55 | 42 | 3.0 | 9.0 | 0.03 | 1.13 | 0.01 | 97 | 1007.4 |
| 20260502051741 | 55 | 18 | 3.0 | 9.0 | 0.03 | 1.13 | 0.01 | 97 | 1007.4 |
| 20260502051640 | 55 | 4 | 4.0 | 9.0 | 0.03 | 1.13 | 0.01 | 97 | 1007.4 |
| 20260502051541 | 55 | 20 | 3.0 | 5.0 | 0.03 | 1.13 | 0.01 | 97 | 1007.4 |
| 20260502051442 | 55 | 47 | 3.0 | 6.0 | 0.02 | 1.12 | 0.00 | 97 | 1007.4 |
| 20260502051340 | 55 | 49 | 2.0 | 6.0 | 0.02 | 1.12 | 0.00 | 97 | 1007.4 |
| 20260502051241 | 55 | 54 | 2.0 | 6.0 | 0.02 | 1.12 | 0.00 | 97 | 1007.3 |
| 20260502051140 | 55 | 47 | 3.0 | 6.0 | 0.02 | 1.12 | 0.00 | 97 | 1007.4 |
| 20260502051041 | 55 | 38 | 4.0 | 6.0 | 0.02 | 1.12 | 0.00 | 97 | 1007.3 |
| 20260502050940 | 55 | 1 | 3.0 | 6.0 | 0.02 | 1.12 | 0.00 | 97 | 1007.4 |
| 20260502050841 | 55 | 27 | 3.0 | 6.0 | 0.02 | 1.12 | 0.00 | 97 | 1007.4 |
| 20260502050741 | 55 | 45 | 3.0 | 6.0 | 0.02 | 1.12 | 0.00 | 97 | 1007.5 |
| 20260502050640 | 55 | 32 | 3.0 | 6.0 | 0.02 | 1.12 | 0.00 | 97 | 1007.4 |
| 20260502050540 | 55 | 32 | 3.0 | 6.0 | 0.02 | 1.12 | 0.00 | 97 | 1007.4 |
| 20260502050441 | 55 | 354 | 3.0 | 6.0 | 0.02 | 1.12 | 0.00 | 97 | 1007.4 |
| 20260502050340 | 55 | 24 | 3.0 | 6.0 | 0.02 | 1.12 | 0.00 | 97 | 1007.5 |
| 20260502050240 | 55 | 16 | 4.0 | 6.0 | 0.02 | 1.12 | 0.00 | 97 | 1007.4 |
| 20260502050140 | 55 | 42 | 4.0 | 6.0 | 0.02 | 1.12 | 0.00 | 97 | 1007.4 |
| 20260502050041 | 55 | 35 | 3.0 | 6.0 | 0.02 | 1.12 | 0.00 | 97 | 1007.3 |
| 20260502045941 | 55 | 20 | 3.0 | 7.0 | 0.02 | 1.12 | 1.12 | 97 | 1007.2 |
| 20260502045840 | 55 | 28 | 3.0 | 7.0 | 0.03 | 1.12 | 1.12 | 97 | 1007.2 |
| 20260502045741 | 55 | 18 | 3.0 | 7.0 | 0.03 | 1.12 | 1.12 | 97 | 1007.2 |
| 20260502045640 | 55 | 25 | 3.0 | 7.0 | 0.03 | 1.12 | 1.12 | 97 | 1007.3 |
| 20260502045541 | 55 | 34 | 3.0 | 7.0 | 0.03 | 1.12 | 1.12 | 97 | 1007.3 |
| 20260502045440 | 55 | 35 | 3.0 | 7.0 | 0.03 | 1.12 | 1.12 | 97 | 1007.3 |
| 20260502045341 | 55 | 38 | 4.0 | 7.0 | 0.03 | 1.12 | 1.12 | 97 | 1007.3 |
| 20260502045239 | 55 | 44 | 4.0 | 7.0 | 0.02 | 1.11 | 1.11 | 97 | 1007.3 |
| 20260502045140 | 55 | 28 | 4.0 | 7.0 | 0.02 | 1.11 | 1.11 | 97 | 1007.3 |
| 20260502045041 | 55 | 32 | 4.0 | 7.0 | 0.02 | 1.11 | 1.11 | 97 | 1007.4 |
| 20260502044940 | 55 | 35 | 4.0 | 7.0 | 0.02 | 1.11 | 1.11 | 97 | 1007.4 |
| 20260502044840 | 55 | 23 | 3.0 | 7.0 | 0.02 | 1.11 | 1.11 | 97 | 1007.3 |
| 20260502044741 | 55 | 35 | 2.0 | 7.0 | 0.02 | 1.11 | 1.11 | 97 | 1007.4 |
| 20260502044640 | 55 | 34 | 2.0 | 7.0 | 0.02 | 1.11 | 1.11 | 97 | 1007.4 |
| 20260502044540 | 55 | 31 | 3.0 | 7.0 | 0.02 | 1.11 | 1.11 | 97 | 1007.4 |
| 20260502044440 | 55 | 21 | 4.0 | 7.0 | 0.02 | 1.11 | 1.11 | 97 | 1007.3 |
| 20260502044341 | 55 | 42 | 4.0 | 7.0 | 0.02 | 1.11 | 1.11 | 97 | 1007.3 |
| 20260502044241 | 55 | 39 | 4.0 | 6.0 | 0.02 | 1.11 | 1.11 | 97 | 1007.4 |
| 20260502044140 | 55 | 30 | 4.0 | 6.0 | 0.02 | 1.11 | 1.11 | 97 | 1007.3 |
| 20260502044041 | 55 | 21 | 4.0 | 6.0 | 0.02 | 1.11 | 1.11 | 97 | 1007.3 |
| 20260502043940 | 55 | 28 | 4.0 | 6.0 | 0.02 | 1.11 | 1.11 | 97 | 1007.3 |
| 20260502043839 | 55 | 35 | 3.0 | 6.0 | 0.02 | 1.11 | 1.11 | 97 | 1007.2 |
| 20260502043740 | 55 | 20 | 3.0 | 6.0 | 0.02 | 1.11 | 1.11 | 97 | 1007.2 |
| 20260502043641 | 55 | 32 | 4.0 | 7.0 | 0.02 | 1.11 | 1.11 | 97 | 1007.2 |
| 20260502043539 | 55 | 49 | 4.0 | 7.0 | 0.02 | 1.11 | 1.11 | 97 | 1007.2 |
| 20260502043440 | 55 | 39 | 4.0 | 7.0 | 0.02 | 1.11 | 1.11 | 97 | 1007.2 |
| 20260502043339 | 55 | 37 | 4.0 | 7.0 | 0.02 | 1.11 | 1.11 | 97 | 1007.2 |
| 20260502043240 | 55 | 51 | 4.0 | 7.0 | 0.02 | 1.11 | 1.11 | 97 | 1007.2 |
| 20260502043140 | 55 | 39 | 4.0 | 7.0 | 0.02 | 1.11 | 1.11 | 97 | 1007.3 |
| 20260502043039 | 55 | 52 | 4.0 | 7.0 | 0.02 | 1.11 | 1.11 | 97 | 1007.3 |
| 20260502042941 | 55 | 41 | 4.0 | 7.0 | 0.02 | 1.11 | 1.11 | 97 | 1007.4 |
| 20260502042841 | 55 | 49 | 4.0 | 7.0 | 0.02 | 1.11 | 1.11 | 97 | 1007.3 |
| 20260502042739 | 55 | 56 | 5.0 | 9.0 | 0.03 | 1.11 | 1.11 | 97 | 1007.3 |
| 20260502042641 | 55 | 68 | 4.0 | 9.0 | 0.03 | 1.11 | 1.11 | 97 | 1007.3 |
| 20260502042539 | 55 | 41 | 4.0 | 9.0 | 0.03 | 1.11 | 1.11 | 97 | 1007.4 |
| 20260502042440 | 55 | 38 | 4.0 | 9.0 | 0.02 | 1.10 | 1.10 | 97 | 1007.3 |
| 20260502042339 | 55 | 49 | 4.0 | 9.0 | 0.02 | 1.10 | 1.10 | 97 | 1007.2 |
| 20260502042240 | 55 | 42 | 4.0 | 9.0 | 0.02 | 1.10 | 1.10 | 97 | 1007.2 |
| 20260502042140 | 55 | 32 | 4.0 | 9.0 | 0.02 | 1.10 | 1.10 | 97 | 1007.2 |
| 20260502042039 | 55 | 31 | 4.0 | 9.0 | 0.02 | 1.10 | 1.10 | 97 | 1007.1 |
| 20260502041940 | 55 | 39 | 5.0 | 9.0 | 0.02 | 1.10 | 1.10 | 97 | 1007.2 |
| 20260502041839 | 55 | 51 | 5.0 | 9.0 | 0.02 | 1.10 | 1.10 | 97 | 1007.1 |
| 20260502041739 | 55 | 35 | 4.0 | 7.0 | 0.02 | 1.10 | 1.10 | 97 | 1007.1 |
| 20260502041639 | 55 | 25 | 4.0 | 7.0 | 0.02 | 1.10 | 1.10 | 97 | 1007.1 |
| 20260502041540 | 55 | 34 | 3.0 | 7.0 | 0.02 | 1.10 | 1.10 | 97 | 1007.1 |
| 20260502041440 | 55 | 35 | 3.0 | 7.0 | 0.02 | 1.10 | 1.10 | 97 | 1007.0 |
| 20260502041339 | 55 | 32 | 4.0 | 7.0 | 0.02 | 1.10 | 1.10 | 97 | 1007.0 |
| 20260502041240 | 55 | 47 | 4.0 | 7.0 | 0.02 | 1.10 | 1.10 | 97 | 1007.1 |
| 20260502041139 | 55 | 32 | 4.0 | 7.0 | 0.02 | 1.10 | 1.10 | 97 | 1007.1 |
| 20260502041039 | 55 | 45 | 4.0 | 7.0 | 0.02 | 1.10 | 1.10 | 97 | 1007.1 |
| 20260502040939 | 55 | 357 | 4.0 | 7.0 | 0.02 | 1.10 | 1.10 | 97 | 1007.1 |
| 20260502040840 | 55 | 32 | 4.0 | 7.0 | 0.02 | 1.10 | 1.10 | 97 | 1007.0 |
| 20260502040740 | 55 | 30 | 4.0 | 7.0 | 0.02 | 1.10 | 1.10 | 97 | 1007.1 |
| 20260502040639 | 55 | 47 | 4.0 | 7.0 | 0.02 | 1.10 | 1.10 | 97 | 1007.1 |
| 20260502040540 | 55 | 39 | 4.0 | 7.0 | 0.03 | 1.10 | 1.10 | 97 | 1007.0 |
| 20260502040439 | 55 | 42 | 3.0 | 6.0 | 0.03 | 1.10 | 1.10 | 97 | 1007.0 |
| 20260502040338 | 55 | 45 | 3.0 | 6.0 | 0.03 | 1.10 | 1.10 | 97 | 1007.0 |
| 20260502040241 | 55 | 47 | 4.0 | 6.0 | 0.03 | 1.10 | 1.10 | 97 | 1007.0 |
| 20260502040141 | 55 | 44 | 4.0 | 6.0 | 0.03 | 1.10 | 1.10 | 97 | 1007.0 |
| 20260502040039 | 55 | 39 | 4.0 | 6.0 | 0.03 | 1.10 | 1.10 | 97 | 1007.0 |
| 20260502035938 | 55 | 41 | 3.0 | 6.0 | 0.03 | 1.10 | 1.10 | 97 | 1007.0 |
| 20260502035840 | 55 | 44 | 3.0 | 6.0 | 0.02 | 1.09 | 1.09 | 97 | 1007.0 |
| 20260502035738 | 55 | 45 | 4.0 | 6.0 | 0.02 | 1.09 | 1.09 | 97 | 1007.0 |
| 20260502035639 | 55 | 41 | 4.0 | 6.0 | 0.02 | 1.09 | 1.09 | 97 | 1006.9 |
| 20260502035540 | 55 | 42 | 4.0 | 6.0 | 0.02 | 1.09 | 1.09 | 97 | 1006.9 |
| 20260502035439 | 56 | 48 | 3.0 | 6.0 | 0.02 | 1.09 | 1.09 | 97 | 1007.0 |
| 20260502035338 | 55 | 42 | 3.0 | 6.0 | 0.02 | 1.09 | 1.09 | 97 | 1007.1 |
| 20260502035239 | 56 | 23 | 4.0 | 6.0 | 0.02 | 1.09 | 1.09 | 97 | 1007.1 |
| 20260502035140 | 56 | 17 | 4.0 | 6.0 | 0.02 | 1.09 | 1.09 | 97 | 1007.1 |
| 20260502035039 | 56 | 48 | 4.0 | 6.0 | 0.02 | 1.09 | 1.09 | 97 | 1007.2 |
| 20260502034938 | 56 | 357 | 3.0 | 6.0 | 0.02 | 1.09 | 1.09 | 97 | 1007.2 |
| 20260502034839 | 56 | 6 | 4.0 | 6.0 | 0.02 | 1.09 | 1.09 | 97 | 1007.3 |
| 20260502034738 | 56 | 51 | 3.0 | 6.0 | 0.02 | 1.09 | 1.09 | 97 | 1007.3 |
| 20260502034639 | 56 | 39 | 3.0 | 6.0 | 0.02 | 1.09 | 1.09 | 97 | 1007.2 |
| 20260502034539 | 56 | 52 | 4.0 | 6.0 | 0.02 | 1.09 | 1.09 | 97 | 1007.2 |
| 20260502034440 | 56 | 7 | 4.0 | 6.0 | 0.02 | 1.09 | 1.09 | 97 | 1007.2 |
| 20260502034339 | 56 | 23 | 4.0 | 6.0 | 0.03 | 1.09 | 1.09 | 97 | 1007.2 |
| 20260502034239 | 56 | 38 | 4.0 | 6.0 | 0.03 | 1.09 | 1.09 | 97 | 1007.2 |
| 20260502034139 | 56 | 47 | 4.0 | 6.0 | 0.03 | 1.09 | 1.09 | 97 | 1007.3 |
| 20260502034039 | 56 | 0 | 4.0 | 6.0 | 0.03 | 1.09 | 1.09 | 97 | 1007.3 |
| 20260502033939 | 56 | 1 | 3.0 | 5.0 | 0.03 | 1.09 | 1.09 | 97 | 1007.4 |
| 20260502033838 | 56 | 1 | 2.0 | 5.0 | 0.03 | 1.09 | 1.09 | 97 | 1007.3 |
| 20260502033740 | 56 | 27 | 3.0 | 5.0 | 0.03 | 1.09 | 1.09 | 97 | 1007.3 |
| 20260502033638 | 56 | 32 | 3.0 | 5.0 | 0.03 | 1.09 | 1.09 | 97 | 1007.4 |
| 20260502033538 | 56 | 31 | 3.0 | 4.0 | 0.03 | 1.09 | 1.09 | 98 | 1007.4 |
| 20260502033440 | 56 | 24 | 3.0 | 4.0 | 0.03 | 1.09 | 1.09 | 97 | 1007.4 |
| 20260502033338 | 56 | 20 | 3.0 | 4.0 | 0.03 | 1.09 | 1.09 | 98 | 1007.4 |
| 20260502033238 | 56 | 20 | 3.0 | 4.0 | 0.03 | 1.09 | 1.09 | 98 | 1007.3 |
| 20260502033138 | 56 | 17 | 3.0 | 4.0 | 0.03 | 1.09 | 1.09 | 98 | 1007.4 |
| 20260502033039 | 56 | 18 | 3.0 | 4.0 | 0.03 | 1.09 | 1.09 | 98 | 1007.4 |
| 20260502032938 | 56 | 330 | 3.0 | 4.0 | 0.03 | 1.09 | 1.09 | 98 | 1007.4 |
| 20260502032838 | 56 | 24 | 2.0 | 4.0 | 0.03 | 1.08 | 1.08 | 98 | 1007.4 |
| 20260502032739 | 56 | 18 | 2.0 | 4.0 | 0.02 | 1.08 | 1.08 | 98 | 1007.3 |
| 20260502032638 | 56 | 17 | 2.0 | 4.0 | 0.03 | 1.08 | 1.08 | 98 | 1007.2 |
| 20260502032538 | 56 | 25 | 2.0 | 5.0 | 0.03 | 1.08 | 1.08 | 98 | 1007.3 |
| 20260502032438 | 56 | 25 | 2.0 | 5.0 | 0.03 | 1.08 | 1.08 | 98 | 1007.2 |
| 20260502032340 | 56 | 42 | 2.0 | 5.0 | 0.03 | 1.08 | 1.08 | 98 | 1007.2 |
| 20260502032238 | 56 | 44 | 2.0 | 5.0 | 0.03 | 1.08 | 1.08 | 98 | 1007.1 |
| 20260502032138 | 56 | 34 | 2.0 | 5.0 | 0.03 | 1.08 | 1.08 | 98 | 1007.1 |
| 20260502032040 | 56 | 3 | 2.0 | 5.0 | 0.03 | 1.08 | 1.08 | 98 | 1007.1 |
| 20260502031939 | 56 | 1 | 2.0 | 5.0 | 0.03 | 1.08 | 1.08 | 98 | 1007.1 |
| 20260502031838 | 56 | 0 | 2.0 | 5.0 | 0.03 | 1.08 | 1.08 | 97 | 1007.0 |
| 20260502031739 | 56 | 350 | 2.0 | 5.0 | 0.03 | 1.08 | 1.08 | 98 | 1007.1 |
| 20260502031639 | 56 | 0 | 2.0 | 5.0 | 0.03 | 1.08 | 1.08 | 97 | 1007.0 |
| 20260502031539 | 56 | 358 | 2.0 | 5.0 | 0.03 | 1.08 | 1.08 | 97 | 1007.1 |
| 20260502031438 | 56 | 0 | 2.0 | 5.0 | 0.03 | 1.08 | 1.08 | 97 | 1007.2 |
| 20260502031339 | 56 | 0 | 2.0 | 5.0 | 0.03 | 1.08 | 1.08 | 97 | 1007.2 |
| 20260502031237 | 56 | 1 | 2.0 | 5.0 | 0.03 | 1.08 | 1.08 | 97 | 1007.2 |
| 20260502031138 | 56 | 17 | 3.0 | 5.0 | 0.03 | 1.08 | 1.08 | 97 | 1007.1 |
| 20260502031037 | 56 | 35 | 2.0 | 5.0 | 0.04 | 1.08 | 1.08 | 97 | 1007.1 |
| 20260502030938 | 56 | 17 | 2.0 | 5.0 | 0.04 | 1.08 | 1.08 | 97 | 1007.1 |
| 20260502030838 | 56 | 3 | 2.0 | 5.0 | 0.04 | 1.08 | 1.08 | 97 | 1006.9 |
| 20260502030738 | 56 | 348 | 3.0 | 5.0 | 0.04 | 1.08 | 1.08 | 97 | 1006.9 |
| 20260502030639 | 56 | 30 | 3.0 | 5.0 | 0.04 | 1.08 | 1.08 | 97 | 1006.8 |
| 20260502030537 | 56 | 20 | 3.0 | 5.0 | 0.03 | 1.07 | 1.07 | 97 | 1006.8 |
| 20260502030438 | 56 | 8 | 3.0 | 5.0 | 0.03 | 1.07 | 1.07 | 97 | 1006.8 |
| 20260502030338 | 56 | 41 | 3.0 | 5.0 | 0.03 | 1.07 | 1.07 | 97 | 1006.8 |
| 20260502030237 | 56 | 51 | 3.0 | 5.0 | 0.03 | 1.07 | 1.07 | 97 | 1006.8 |
| 20260502030138 | 55 | 1 | 2.0 | 5.0 | 0.03 | 1.07 | 1.07 | 97 | 1006.8 |
| 20260502030038 | 55 | 17 | 3.0 | 5.0 | 0.03 | 1.07 | 1.07 | 98 | 1006.8 |
| 20260502025938 | 55 | 1 | 3.0 | 6.0 | 0.03 | 1.07 | 1.07 | 97 | 1006.8 |
| 20260502025837 | 55 | 31 | 3.0 | 6.0 | 0.03 | 1.07 | 1.07 | 97 | 1006.8 |
| 20260502025739 | 55 | 35 | 3.0 | 6.0 | 0.04 | 1.07 | 1.07 | 97 | 1006.7 |
| 20260502025637 | 55 | 27 | 3.0 | 6.0 | 0.04 | 1.07 | 1.07 | 97 | 1006.7 |
| 20260502025538 | 55 | 24 | 4.0 | 6.0 | 0.04 | 1.07 | 1.07 | 97 | 1006.7 |
| 20260502025437 | 55 | 38 | 4.0 | 6.0 | 0.04 | 1.07 | 1.07 | 97 | 1006.7 |
| 20260502025337 | 55 | 28 | 4.0 | 7.0 | 0.04 | 1.07 | 1.07 | 97 | 1006.7 |
| 20260502025238 | 55 | 42 | 4.0 | 7.0 | 0.04 | 1.07 | 1.07 | 97 | 1006.7 |
| 20260502025137 | 55 | 54 | 4.0 | 7.0 | 0.04 | 1.07 | 1.07 | 97 | 1006.7 |
| 20260502025038 | 55 | 21 | 3.0 | 7.0 | 0.04 | 1.07 | 1.07 | 97 | 1006.6 |
| 20260502024938 | 55 | 31 | 3.0 | 7.0 | 0.04 | 1.07 | 1.07 | 97 | 1006.7 |
| 20260502024838 | 55 | 37 | 3.0 | 7.0 | 0.04 | 1.07 | 1.07 | 97 | 1006.5 |
| 20260502024737 | 55 | 34 | 3.0 | 7.0 | 0.04 | 1.07 | 1.07 | 97 | 1006.5 |
| 20260502024638 | 55 | 31 | 3.0 | 7.0 | 0.04 | 1.07 | 1.07 | 97 | 1006.4 |
| 20260502024538 | 55 | 32 | 4.0 | 7.0 | 0.04 | 1.07 | 1.07 | 97 | 1006.4 |
| 20260502024437 | 55 | 38 | 4.0 | 7.0 | 0.04 | 1.06 | 1.06 | 97 | 1006.3 |
| 20260502024337 | 55 | 38 | 4.0 | 7.0 | 0.03 | 1.06 | 1.06 | 97 | 1006.4 |
| 20260502024239 | 55 | 41 | 3.0 | 7.0 | 0.04 | 1.06 | 1.06 | 97 | 1006.3 |
| 20260502024137 | 55 | 28 | 4.0 | 7.0 | 0.04 | 1.06 | 1.06 | 97 | 1006.3 |
| 20260502024037 | 55 | 39 | 4.0 | 7.0 | 0.04 | 1.06 | 1.06 | 97 | 1006.3 |
| 20260502023937 | 55 | 59 | 4.0 | 7.0 | 0.04 | 1.06 | 1.06 | 97 | 1006.3 |
| 20260502023839 | 55 | 37 | 4.0 | 7.0 | 0.04 | 1.06 | 1.06 | 97 | 1006.2 |
| 20260502023737 | 55 | 38 | 4.0 | 9.0 | 0.04 | 1.06 | 1.06 | 97 | 1006.1 |
| 20260502023637 | 55 | 35 | 4.0 | 9.0 | 0.04 | 1.06 | 1.06 | 97 | 1006.2 |
| 20260502023539 | 55 | 38 | 4.0 | 9.0 | 0.04 | 1.06 | 1.06 | 97 | 1006.2 |
| 20260502023435 | 55 | 41 | 5.0 | 9.0 | 0.04 | 1.06 | 1.06 | 97 | 1006.1 |
| 20260502023334 | 55 | 23 | 4.0 | 9.0 | 0.04 | 1.06 | 1.06 | 97 | 1006.0 |
| 20260502023234 | 55 | 63 | 3.0 | 9.0 | 0.04 | 1.06 | 1.06 | 97 | 1006.1 |
| 20260502023132 | 55 | 6 | 3.0 | 9.0 | 0.04 | 1.06 | 1.06 | 97 | 1005.9 |
| 20260502023031 | 55 | 48 | 4.0 | 9.0 | 0.04 | 1.06 | 1.06 | 97 | 1005.8 |
| 20260502022932 | 55 | 63 | 5.0 | 9.0 | 0.04 | 1.06 | 1.06 | 97 | 1005.7 |
| 20260502022831 | 55 | 41 | 5.0 | 9.0 | 0.05 | 1.06 | 1.06 | 97 | 1005.5 |
| 20260502022732 | 55 | 355 | 4.0 | 9.0 | 0.05 | 1.05 | 1.05 | 97 | 1005.5 |
| 20260502022631 | 55 | 52 | 4.0 | 9.0 | 0.04 | 1.05 | 1.05 | 97 | 1005.4 |
| 20260502022532 | 55 | 41 | 4.0 | 9.0 | 0.04 | 1.05 | 1.05 | 97 | 1005.3 |
| 20260502022433 | 55 | 32 | 4.0 | 9.0 | 0.04 | 1.05 | 1.05 | 97 | 1005.4 |
| 20260502022331 | 55 | 42 | 5.0 | 9.0 | 0.04 | 1.05 | 1.05 | 97 | 1005.3 |
| 20260502022232 | 55 | 18 | 5.0 | 9.0 | 0.04 | 1.05 | 1.05 | 97 | 1005.3 |
| 20260502022132 | 55 | 54 | 4.0 | 10.0 | 0.04 | 1.05 | 1.05 | 97 | 1005.3 |
| 20260502022031 | 55 | 35 | 5.0 | 10.0 | 0.04 | 1.05 | 1.05 | 97 | 1005.2 |
| 20260502021931 | 55 | 54 | 4.0 | 10.0 | 0.04 | 1.05 | 1.05 | 97 | 1005.3 |
| 20260502021830 | 55 | 37 | 4.0 | 10.0 | 0.04 | 1.05 | 1.05 | 97 | 1005.4 |
| 20260502021732 | 55 | 25 | 4.0 | 10.0 | 0.04 | 1.05 | 1.05 | 97 | 1005.4 |
| 20260502021631 | 55 | 44 | 4.0 | 10.0 | 0.04 | 1.05 | 1.05 | 97 | 1005.4 |
| 20260502021530 | 55 | 41 | 3.0 | 10.0 | 0.04 | 1.05 | 1.05 | 97 | 1005.3 |
| 20260502021432 | 55 | 34 | 3.0 | 10.0 | 0.04 | 1.05 | 1.05 | 97 | 1005.4 |
| 20260502021331 | 55 | 18 | 4.0 | 10.0 | 0.04 | 1.05 | 1.05 | 97 | 1005.4 |
| 20260502021230 | 55 | 47 | 5.0 | 10.0 | 0.05 | 1.05 | 1.05 | 97 | 1005.4 |
| 20260502021128 | 55 | 42 | 5.0 | 10.0 | 0.05 | 1.04 | 1.04 | 97 | 1005.4 |
| 20260502021027 | 55 | 44 | 5.0 | 9.0 | 0.04 | 1.04 | 1.04 | 97 | 1005.3 |
| 20260502020925 | 55 | 39 | 5.0 | 9.0 | 0.04 | 1.04 | 1.04 | 97 | 1005.3 |
| 20260502020823 | 55 | 32 | 5.0 | 9.0 | 0.04 | 1.04 | 1.04 | 97 | 1005.3 |
| 20260502020721 | 55 | 32 | 5.0 | 7.0 | 0.04 | 1.04 | 1.04 | 97 | 1005.2 |
| 20260502020621 | 55 | 41 | 5.0 | 7.0 | 0.04 | 1.04 | 1.04 | 97 | 1005.2 |
| 20260502020519 | 55 | 59 | 4.0 | 7.0 | 0.04 | 1.04 | 1.04 | 97 | 1005.3 |
| 20260502020418 | 55 | 28 | 4.0 | 10.0 | 0.04 | 1.04 | 1.04 | 97 | 1005.2 |
| 20260502020316 | 55 | 42 | 4.0 | 10.0 | 0.04 | 1.04 | 1.04 | 97 | 1005.2 |
| 20260502020214 | 55 | 28 | 5.0 | 10.0 | 0.04 | 1.04 | 1.04 | 97 | 1005.2 |
| 20260502020113 | 55 | 49 | 5.0 | 10.0 | 0.04 | 1.04 | 1.04 | 97 | 1005.3 |
| 20260502020012 | 55 | 56 | 5.0 | 10.0 | 0.04 | 1.04 | 1.04 | 97 | 1005.2 |
| 20260502015910 | 55 | 25 | 5.0 | 10.0 | 0.04 | 1.04 | 1.04 | 97 | 1005.3 |
| 20260502015809 | 55 | 44 | 4.0 | 10.0 | 0.03 | 1.03 | 1.03 | 97 | 1005.3 |
| 20260502015707 | 55 | 38 | 5.0 | 10.0 | 0.03 | 1.03 | 1.03 | 97 | 1005.4 |
| 20260502015605 | 55 | 16 | 5.0 | 10.0 | 0.03 | 1.03 | 1.03 | 97 | 1005.4 |
| 20260502015505 | 55 | 52 | 5.0 | 10.0 | 0.04 | 1.03 | 1.03 | 97 | 1005.3 |
| 20260502015403 | 56 | 44 | 5.0 | 9.0 | 0.04 | 1.03 | 1.03 | 97 | 1005.4 |
| 20260502015305 | 56 | 45 | 5.0 | 9.0 | 0.04 | 1.03 | 1.03 | 97 | 1005.3 |
| 20260502015203 | 56 | 21 | 6.0 | 9.0 | 0.04 | 1.03 | 1.03 | 97 | 1005.2 |
| 20260502015103 | 56 | 34 | 6.0 | 9.0 | 0.04 | 1.03 | 1.03 | 97 | 1005.2 |
| 20260502015003 | 56 | 331 | 5.0 | 9.0 | 0.04 | 1.03 | 1.03 | 97 | 1005.2 |
| 20260502014902 | 56 | 42 | 4.0 | 9.0 | 0.04 | 1.03 | 1.03 | 97 | 1005.2 |
| 20260502014803 | 56 | 35 | 4.0 | 9.0 | 0.04 | 1.03 | 1.03 | 97 | 1005.3 |
| 20260502014702 | 56 | 45 | 4.0 | 9.0 | 0.04 | 1.03 | 1.03 | 97 | 1005.2 |
| 20260502014602 | 56 | 34 | 5.0 | 9.0 | 0.04 | 1.03 | 1.03 | 97 | 1005.2 |
| 20260502014502 | 56 | 31 | 5.0 | 9.0 | 0.04 | 1.03 | 1.03 | 97 | 1005.2 |
| 20260502014403 | 56 | 42 | 5.0 | 9.0 | 0.04 | 1.03 | 1.03 | 97 | 1005.2 |
| 20260502014302 | 56 | 30 | 5.0 | 9.0 | 0.04 | 1.02 | 1.02 | 97 | 1005.1 |
| 20260502014202 | 56 | 42 | 4.0 | 7.0 | 0.03 | 1.02 | 1.02 | 97 | 1005.2 |
| 20260502014104 | 56 | 30 | 4.0 | 7.0 | 0.04 | 1.02 | 1.02 | 97 | 1005.2 |
| 20260502014001 | 56 | 37 | 4.0 | 7.0 | 0.04 | 1.02 | 1.02 | 97 | 1005.2 |
| 20260502013900 | 56 | 49 | 5.0 | 6.0 | 0.04 | 1.02 | 1.02 | 97 | 1005.2 |
| 20260502013758 | 56 | 41 | 5.0 | 6.0 | 0.04 | 1.02 | 1.02 | 97 | 1005.2 |
| 20260502013642 | 56 | 28 | 4.0 | 6.0 | 0.04 | 1.02 | 1.02 | 97 | 1005.3 |
| 20260502013541 | 56 | 48 | 4.0 | 7.0 | 0.04 | 1.02 | 1.02 | 97 | 1005.3 |
| 20260502013439 | 56 | 14 | 3.0 | 10.0 | 0.04 | 1.02 | 1.02 | 97 | 1005.2 |
| 20260502013337 | 56 | 11 | 3.0 | 10.0 | 0.04 | 1.02 | 1.02 | 97 | 1005.2 |
| 20260502013237 | 56 | 27 | 3.0 | 10.0 | 0.04 | 1.02 | 1.02 | 97 | 1005.0 |
| 20260502013136 | 56 | 21 | 4.0 | 10.0 | 0.04 | 1.02 | 1.02 | 97 | 1004.9 |
| 20260502013036 | 56 | 21 | 3.0 | 10.0 | 0.04 | 1.02 | 1.02 | 97 | 1004.9 |
| 20260502012936 | 56 | 13 | 4.0 | 10.0 | 0.04 | 1.02 | 1.02 | 97 | 1004.9 |
| 20260502012835 | 56 | 18 | 4.0 | 10.0 | 0.03 | 1.01 | 1.01 | 97 | 1004.9 |
| 20260502012736 | 56 | 30 | 4.0 | 10.0 | 0.04 | 1.01 | 1.01 | 97 | 1004.9 |
| 20260502012636 | 56 | 13 | 5.0 | 10.0 | 0.04 | 1.01 | 1.01 | 97 | 1004.8 |
| 20260502012536 | 56 | 32 | 5.0 | 10.0 | 0.04 | 1.01 | 1.01 | 97 | 1004.9 |
| 20260502012436 | 56 | 31 | 4.0 | 9.0 | 0.04 | 1.01 | 1.01 | 97 | 1004.9 |
| 20260502012335 | 56 | 28 | 5.0 | 9.0 | 0.04 | 1.01 | 1.01 | 97 | 1004.8 |
| 20260502012235 | 56 | 35 | 4.0 | 9.0 | 0.04 | 1.01 | 1.01 | 97 | 1004.7 |
| 20260502012135 | 56 | 0 | 4.0 | 9.0 | 0.04 | 1.01 | 1.01 | 97 | 1004.7 |
| 20260502012035 | 56 | 20 | 4.0 | 9.0 | 0.04 | 1.01 | 1.01 | 97 | 1004.7 |
| 20260502011936 | 56 | 39 | 4.0 | 9.0 | 0.04 | 1.01 | 1.01 | 97 | 1004.7 |
| 20260502011835 | 57 | 42 | 4.0 | 9.0 | 0.04 | 1.01 | 1.01 | 97 | 1004.7 |
| 20260502011735 | 57 | 27 | 4.0 | 9.0 | 0.04 | 1.01 | 1.01 | 97 | 1004.6 |
| 20260502011634 | 57 | 25 | 5.0 | 9.0 | 0.04 | 1.01 | 1.01 | 97 | 1004.6 |
| 20260502011532 | 57 | 4 | 4.0 | 9.0 | 0.04 | 1.01 | 1.01 | 97 | 1004.6 |
| 20260502011431 | 57 | 357 | 4.0 | 9.0 | 0.04 | 1.01 | 1.01 | 97 | 1004.5 |
| 20260502011331 | 57 | 44 | 4.0 | 9.0 | 0.05 | 1.01 | 1.01 | 97 | 1004.5 |
| 20260502011233 | 57 | 39 | 4.0 | 9.0 | 0.04 | 1.00 | 1.00 | 97 | 1004.5 |
| 20260502011132 | 57 | 13 | 4.0 | 9.0 | 0.04 | 1.00 | 1.00 | 98 | 1004.5 |
| 20260502011031 | 57 | 18 | 4.0 | 9.0 | 0.04 | 1.00 | 1.00 | 98 | 1004.6 |
| 20260502010933 | 57 | 27 | 4.0 | 7.0 | 0.04 | 1.00 | 1.00 | 98 | 1004.6 |
| 20260502010831 | 57 | 41 | 4.0 | 7.0 | 0.04 | 1.00 | 1.00 | 97 | 1004.6 |
| 20260502010730 | 57 | 27 | 4.0 | 7.0 | 0.04 | 1.00 | 1.00 | 97 | 1004.6 |
| 20260502010632 | 57 | 17 | 5.0 | 7.0 | 0.04 | 1.00 | 1.00 | 97 | 1004.6 |
| 20260502010532 | 58 | 34 | 4.0 | 9.0 | 0.04 | 1.00 | 1.00 | 97 | 1004.7 |
| 20260502010431 | 58 | 27 | 4.0 | 9.0 | 0.04 | 1.00 | 1.00 | 97 | 1004.7 |
| 20260502010332 | 58 | 37 | 4.0 | 9.0 | 0.04 | 1.00 | 1.00 | 97 | 1004.7 |
| 20260502010232 | 58 | 6 | 3.0 | 9.0 | 0.04 | 1.00 | 1.00 | 97 | 1005.0 |
| 20260502010131 | 58 | 17 | 3.0 | 9.0 | 0.05 | 1.00 | 1.00 | 97 | 1005.0 |
| 20260502010031 | 58 | 16 | 4.0 | 9.0 | 0.05 | 1.00 | 1.00 | 97 | 1005.2 |
| 20260502005932 | 58 | 1 | 4.0 | 9.0 | 0.05 | 1.00 | 1.00 | 97 | 1005.3 |
| 20260502005830 | 58 | 8 | 4.0 | 9.0 | 0.05 | 1.00 | 1.00 | 98 | 1005.3 |
| 20260502005732 | 58 | 13 | 4.0 | 9.0 | 0.05 | 1.00 | 1.00 | 98 | 1005.5 |
| 20260502005631 | 58 | 0 | 4.0 | 9.0 | 0.05 | 0.99 | 0.99 | 98 | 1005.5 |
| 20260502005532 | 58 | 17 | 3.0 | 6.0 | 0.04 | 0.99 | 0.99 | 98 | 1005.5 |
| 20260502005431 | 58 | 351 | 3.0 | 6.0 | 0.04 | 0.99 | 0.99 | 98 | 1005.5 |
| 20260502005332 | 58 | 348 | 3.0 | 6.0 | 0.04 | 0.99 | 0.99 | 98 | 1005.4 |
| 20260502005233 | 58 | 56 | 4.0 | 6.0 | 0.04 | 0.99 | 0.99 | 98 | 1005.3 |
| 20260502005131 | 58 | 353 | 3.0 | 6.0 | 0.04 | 0.99 | 0.99 | 98 | 1005.2 |
| 20260502005031 | 58 | 6 | 3.0 | 6.0 | 0.04 | 0.99 | 0.99 | 98 | 1005.2 |
| 20260502004931 | 58 | 31 | 3.0 | 6.0 | 0.04 | 0.99 | 0.99 | 98 | 1005.1 |
| 20260502004831 | 58 | 30 | 3.0 | 6.0 | 0.04 | 0.99 | 0.99 | 98 | 1005.0 |
| 20260502004731 | 58 | 4 | 4.0 | 11.0 | 0.04 | 0.99 | 0.99 | 98 | 1004.9 |
| 20260502004631 | 58 | 354 | 4.0 | 11.0 | 0.05 | 0.99 | 0.99 | 97 | 1004.9 |
| 20260502004532 | 58 | 0 | 4.0 | 11.0 | 0.05 | 0.99 | 0.99 | 97 | 1004.9 |
| 20260502004431 | 58 | 341 | 3.0 | 11.0 | 0.05 | 0.99 | 0.99 | 97 | 1004.9 |
| 20260502004332 | 58 | 358 | 4.0 | 11.0 | 0.05 | 0.99 | 0.99 | 97 | 1004.9 |
| 20260502004233 | 58 | 0 | 4.0 | 11.0 | 0.05 | 0.99 | 0.99 | 97 | 1004.8 |
| 20260502004132 | 58 | 358 | 4.0 | 11.0 | 0.04 | 0.98 | 0.98 | 97 | 1004.7 |
| 20260502004030 | 58 | 343 | 4.0 | 11.0 | 0.04 | 0.98 | 0.98 | 98 | 1004.5 |
| 20260502003931 | 58 | 0 | 4.0 | 11.0 | 0.04 | 0.98 | 0.98 | 98 | 1004.4 |
| 20260502003832 | 58 | 321 | 4.0 | 11.0 | 0.04 | 0.98 | 0.98 | 98 | 1004.4 |
| 20260502003731 | 58 | 0 | 3.0 | 9.0 | 0.04 | 0.98 | 0.98 | 98 | 1004.2 |
| 20260502003631 | 58 | 7 | 3.0 | 9.0 | 0.04 | 0.98 | 0.98 | 98 | 1004.1 |
| 20260502003532 | 58 | 0 | 4.0 | 9.0 | 0.04 | 0.98 | 0.98 | 98 | 1004.1 |
| 20260502003431 | 58 | 23 | 4.0 | 9.0 | 0.05 | 0.98 | 0.98 | 98 | 1004.0 |
| 20260502003329 | 59 | 17 | 4.0 | 9.0 | 0.05 | 0.98 | 0.98 | 98 | 1004.0 |
| 20260502003228 | 59 | 16 | 3.0 | 9.0 | 0.05 | 0.98 | 0.98 | 98 | 1003.9 |
| 20260502003126 | 59 | 11 | 3.0 | 9.0 | 0.05 | 0.98 | 0.98 | 98 | 1003.9 |
| 20260502003025 | 59 | 31 | 4.0 | 9.0 | 0.05 | 0.98 | 0.98 | 98 | 1003.9 |
| 20260502002923 | 59 | 7 | 3.0 | 6.0 | 0.05 | 0.98 | 0.98 | 98 | 1003.9 |
| 20260502002822 | 59 | 13 | 3.0 | 6.0 | 0.05 | 0.98 | 0.98 | 98 | 1003.8 |
| 20260502002720 | 59 | 32 | 2.0 | 6.0 | 0.04 | 0.97 | 0.97 | 98 | 1003.8 |
| 20260502002619 | 59 | 32 | 2.0 | 6.0 | 0.04 | 0.97 | 0.97 | 98 | 1003.7 |
| 20260502002517 | 59 | 32 | 3.0 | 6.0 | 0.04 | 0.97 | 0.97 | 98 | 1003.7 |
| 20260502002416 | 59 | 23 | 3.0 | 6.0 | 0.04 | 0.97 | 0.97 | 98 | 1003.8 |
| 20260502002314 | 58 | 20 | 4.0 | 6.0 | 0.04 | 0.97 | 0.97 | 98 | 1003.7 |
| 20260502002213 | 59 | 14 | 4.0 | 6.0 | 0.04 | 0.97 | 0.97 | 98 | 1003.7 |
| 20260502002112 | 59 | 21 | 4.0 | 6.0 | 0.05 | 0.97 | 0.97 | 98 | 1003.6 |
| 20260502002010 | 59 | 35 | 4.0 | 6.0 | 0.05 | 0.97 | 0.97 | 98 | 1003.6 |
| 20260502001909 | 59 | 38 | 4.0 | 6.0 | 0.05 | 0.97 | 0.97 | 98 | 1003.7 |
| 20260502001807 | 59 | 44 | 4.0 | 6.0 | 0.05 | 0.97 | 0.97 | 98 | 1003.7 |
| 20260502001706 | 59 | 34 | 4.0 | 6.0 | 0.05 | 0.97 | 0.97 | 98 | 1003.7 |
| 20260502001604 | 59 | 41 | 4.0 | 6.0 | 0.05 | 0.97 | 0.97 | 98 | 1003.8 |
| 20260502001504 | 59 | 38 | 4.0 | 6.0 | 0.05 | 0.97 | 0.97 | 98 | 1003.9 |
| 20260502001403 | 59 | 37 | 3.0 | 6.0 | 0.05 | 0.97 | 0.97 | 98 | 1004.0 |
| 20260502001303 | 59 | 28 | 4.0 | 6.0 | 0.04 | 0.96 | 0.96 | 98 | 1004.1 |
| 20260502001202 | 59 | 41 | 3.0 | 6.0 | 0.04 | 0.96 | 0.96 | 98 | 1004.2 |
| 20260502001103 | 59 | 23 | 3.0 | 5.0 | 0.05 | 0.96 | 0.96 | 98 | 1004.4 |
| 20260502001003 | 59 | 25 | 2.0 | 5.0 | 0.05 | 0.96 | 0.96 | 98 | 1004.5 |
| 20260502000904 | 59 | 34 | 2.0 | 5.0 | 0.05 | 0.96 | 0.96 | 98 | 1004.7 |
| 20260502000803 | 59 | 35 | 3.0 | 5.0 | 0.05 | 0.96 | 0.96 | 98 | 1004.8 |
| 20260502000703 | 59 | 8 | 4.0 | 5.0 | 0.05 | 0.96 | 0.96 | 98 | 1004.9 |
| 20260502000602 | 59 | 0 | 4.0 | 5.0 | 0.05 | 0.96 | 0.96 | 98 | 1005.0 |
| 20260502000502 | 59 | 358 | 3.0 | 5.0 | 0.05 | 0.96 | 0.96 | 98 | 1005.0 |
| 20260502000402 | 59 | 0 | 4.0 | 5.0 | 0.05 | 0.96 | 0.96 | 98 | 1005.0 |
| 20260502000303 | 59 | 353 | 4.0 | 5.0 | 0.05 | 0.96 | 0.96 | 98 | 1005.0 |
| 20260502000204 | 59 | 343 | 3.0 | 4.0 | 0.05 | 0.95 | 0.95 | 98 | 1005.0 |
| 20260502000002 | 59 | 7 | 2.0 | 4.0 | 0.05 | 0.95 | 0.95 | 98 | 1004.8 |
| 20260501235902 | 59 | 65 | 1.0 | 4.0 | 0.05 | 0.95 | 0.95 | 98 | 1004.7 |
| 20260501235802 | 59 | 52 | 1.0 | 4.0 | 0.05 | 0.95 | 0.95 | 98 | 1004.6 |
| 20260501235702 | 59 | 44 | 2.0 | 4.0 | 0.05 | 0.95 | 0.95 | 98 | 1004.5 |
| 20260501235604 | 59 | 44 | 2.0 | 4.0 | 0.05 | 0.95 | 0.95 | 98 | 1004.5 |
| 20260501235504 | 59 | 45 | 2.0 | 4.0 | 0.05 | 0.95 | 0.95 | 98 | 1004.3 |
| 20260501235402 | 59 | 45 | 2.0 | 4.0 | 0.05 | 0.95 | 0.95 | 98 | 1004.2 |
| 20260501235305 | 59 | 45 | 2.0 | 4.0 | 0.05 | 0.95 | 0.95 | 98 | 1004.1 |
| 20260501235203 | 59 | 45 | 2.0 | 4.0 | 0.05 | 0.95 | 0.95 | 98 | 1004.0 |
| 20260501235103 | 59 | 45 | 1.0 | 4.0 | 0.05 | 0.95 | 0.95 | 98 | 1003.9 |
| 20260501235001 | 59 | 49 | 0.0 | 4.0 | 0.06 | 0.95 | 0.95 | 98 | 1004.0 |
| 20260501234902 | 59 | 51 | 1.0 | 4.0 | 0.06 | 0.95 | 0.95 | 98 | 1004.1 |
| 20260501234803 | 59 | 51 | 2.0 | 4.0 | 0.06 | 0.95 | 0.95 | 98 | 1004.1 |
| 20260501234701 | 59 | 18 | 2.0 | 4.0 | 0.06 | 0.94 | 0.94 | 98 | 1004.3 |
| 20260501234602 | 59 | 11 | 2.0 | 4.0 | 0.05 | 0.94 | 0.94 | 98 | 1004.2 |
| 20260501234503 | 59 | 7 | 2.0 | 5.0 | 0.05 | 0.94 | 0.94 | 98 | 1004.1 |
| 20260501234402 | 59 | 14 | 2.0 | 5.0 | 0.05 | 0.94 | 0.94 | 98 | 1004.0 |
| 20260501234301 | 59 | 7 | 2.0 | 5.0 | 0.05 | 0.94 | 0.94 | 98 | 1003.9 |
| 20260501234202 | 59 | 55 | 2.0 | 5.0 | 0.05 | 0.94 | 0.94 | 98 | 1003.8 |
| 20260501234103 | 59 | 42 | 2.0 | 5.0 | 0.05 | 0.94 | 0.94 | 98 | 1003.8 |
| 20260501234002 | 59 | 56 | 3.0 | 5.0 | 0.06 | 0.94 | 0.94 | 98 | 1003.7 |
| 20260501233902 | 59 | 41 | 3.0 | 5.0 | 0.06 | 0.94 | 0.94 | 98 | 1003.7 |
| 20260501233803 | 59 | 13 | 3.0 | 5.0 | 0.06 | 0.94 | 0.94 | 98 | 1003.7 |
| 20260501233702 | 59 | 16 | 3.0 | 5.0 | 0.06 | 0.94 | 0.94 | 98 | 1003.6 |
| 20260501233602 | 59 | 25 | 3.0 | 5.0 | 0.06 | 0.94 | 0.94 | 98 | 1003.6 |
| 20260501233503 | 59 | 20 | 2.0 | 5.0 | 0.06 | 0.93 | 0.93 | 98 | 1003.6 |
| 20260501233403 | 59 | 17 | 2.0 | 5.0 | 0.05 | 0.93 | 0.93 | 98 | 1003.7 |
| 20260501233302 | 59 | 0 | 3.0 | 5.0 | 0.05 | 0.93 | 0.93 | 98 | 1003.9 |
| 20260501233202 | 59 | 0 | 3.0 | 5.0 | 0.05 | 0.93 | 0.93 | 98 | 1004.0 |
| 20260501233104 | 59 | 0 | 3.0 | 5.0 | 0.06 | 0.93 | 0.93 | 98 | 1004.3 |
| 20260501233002 | 59 | 0 | 3.0 | 5.0 | 0.06 | 0.93 | 0.93 | 98 | 1004.5 |
| 20260501232902 | 59 | 8 | 3.0 | 5.0 | 0.06 | 0.93 | 0.93 | 98 | 1004.5 |
| 20260501232803 | 59 | 354 | 3.0 | 5.0 | 0.06 | 0.93 | 0.93 | 98 | 1004.7 |
| 20260501232702 | 59 | 333 | 3.0 | 5.0 | 0.06 | 0.93 | 0.93 | 98 | 1004.7 |
| 20260501232604 | 59 | 347 | 2.0 | 5.0 | 0.06 | 0.93 | 0.93 | 98 | 1004.6 |
| 20260501232503 | 59 | 0 | 2.0 | 5.0 | 0.06 | 0.93 | 0.93 | 98 | 1004.4 |
| 20260501232403 | 59 | 24 | 2.0 | 5.0 | 0.06 | 0.93 | 0.93 | 98 | 1004.2 |
| 20260501232305 | 59 | 357 | 3.0 | 5.0 | 0.06 | 0.93 | 0.93 | 98 | 1004.1 |
| 20260501232203 | 59 | 23 | 2.0 | 6.0 | 0.06 | 0.92 | 0.92 | 98 | 1003.9 |
| 20260501232103 | 59 | 31 | 2.0 | 6.0 | 0.06 | 0.92 | 0.92 | 98 | 1003.8 |
| 20260501232003 | 59 | 31 | 3.0 | 6.0 | 0.06 | 0.92 | 0.92 | 98 | 1003.6 |
| 20260501231902 | 59 | 30 | 3.0 | 6.0 | 0.06 | 0.92 | 0.92 | 98 | 1003.6 |
| 20260501231801 | 59 | 16 | 3.0 | 6.0 | 0.06 | 0.92 | 0.92 | 98 | 1003.5 |
| 20260501231703 | 59 | 28 | 3.0 | 7.0 | 0.06 | 0.92 | 0.92 | 98 | 1003.5 |
| 20260501231602 | 59 | 41 | 2.0 | 9.0 | 0.06 | 0.92 | 0.92 | 98 | 1003.5 |
| 20260501231504 | 59 | 41 | 3.0 | 9.0 | 0.06 | 0.92 | 0.92 | 98 | 1003.5 |
| 20260501231403 | 59 | 37 | 3.0 | 9.0 | 0.06 | 0.92 | 0.92 | 98 | 1003.3 |
| 20260501231302 | 59 | 16 | 3.0 | 9.0 | 0.06 | 0.92 | 0.92 | 98 | 1003.2 |
| 20260501231201 | 59 | 14 | 3.0 | 9.0 | 0.07 | 0.91 | 0.91 | 98 | 1003.0 |
| 20260501231103 | 59 | 41 | 3.0 | 9.0 | 0.06 | 0.91 | 0.91 | 98 | 1002.8 |
| 20260501231004 | 59 | 80 | 4.0 | 9.0 | 0.06 | 0.91 | 0.91 | 98 | 1002.8 |
| 20260501230902 | 59 | 68 | 5.0 | 9.0 | 0.06 | 0.91 | 0.91 | 98 | 1002.7 |
| 20260501230803 | 59 | 48 | 4.0 | 9.0 | 0.06 | 0.91 | 0.91 | 98 | 1002.7 |
| 20260501230703 | 59 | 51 | 3.0 | 9.0 | 0.06 | 0.91 | 0.91 | 98 | 1002.7 |
| 20260501230602 | 59 | 79 | 3.0 | 10.0 | 0.06 | 0.91 | 0.91 | 98 | 1002.7 |
| 20260501230502 | 59 | 56 | 2.0 | 10.0 | 0.06 | 0.91 | 0.91 | 98 | 1002.7 |
| 20260501230403 | 59 | 72 | 2.0 | 10.0 | 0.06 | 0.91 | 0.91 | 98 | 1002.7 |
| 20260501230303 | 59 | 49 | 3.0 | 10.0 | 0.06 | 0.91 | 0.91 | 98 | 1002.6 |
| 20260501230202 | 59 | 49 | 5.0 | 10.0 | 0.06 | 0.90 | 0.90 | 98 | 1002.4 |
| 20260501230003 | 59 | 49 | 4.0 | 10.0 | 0.06 | 0.90 | 0.90 | 98 | 1002.3 |
| 20260501225903 | 59 | 54 | 4.0 | 10.0 | 0.06 | 0.90 | 0.90 | 98 | 1002.2 |
| 20260501225802 | 59 | 30 | 4.0 | 10.0 | 0.06 | 0.90 | 0.90 | 98 | 1002.1 |
| 20260501225703 | 59 | 49 | 4.0 | 10.0 | 0.06 | 0.90 | 0.90 | 98 | 1002.0 |
| 20260501225602 | 59 | 44 | 4.0 | 6.0 | 0.06 | 0.90 | 0.90 | 98 | 1002.0 |
| 20260501225503 | 59 | 56 | 4.0 | 6.0 | 0.06 | 0.90 | 0.90 | 98 | 1002.1 |
| 20260501225402 | 59 | 73 | 4.0 | 6.0 | 0.06 | 0.90 | 0.90 | 98 | 1002.2 |
| 20260501225305 | 59 | 97 | 3.0 | 6.0 | 0.06 | 0.90 | 0.90 | 98 | 1002.2 |
| 20260501225202 | 59 | 41 | 3.0 | 6.0 | 0.06 | 0.90 | 0.90 | 98 | 1002.2 |
| 20260501225102 | 59 | 41 | 4.0 | 6.0 | 0.07 | 0.90 | 0.90 | 98 | 1002.4 |
| 20260501225005 | 59 | 62 | 4.0 | 6.0 | 0.06 | 0.89 | 0.89 | 98 | 1002.4 |
| 20260501224902 | 59 | 66 | 4.0 | 6.0 | 0.06 | 0.89 | 0.89 | 98 | 1002.5 |
| 20260501224802 | 59 | 49 | 3.0 | 6.0 | 0.06 | 0.89 | 0.89 | 97 | 1002.6 |
| 20260501224703 | 59 | 72 | 4.0 | 6.0 | 0.06 | 0.89 | 0.89 | 98 | 1002.6 |
| 20260501224603 | 59 | 56 | 3.0 | 6.0 | 0.06 | 0.89 | 0.89 | 98 | 1002.8 |
| 20260501224503 | 60 | 41 | 3.0 | 6.0 | 0.06 | 0.89 | 0.89 | 98 | 1002.8 |
| 20260501224402 | 60 | 49 | 3.0 | 6.0 | 0.06 | 0.89 | 0.89 | 98 | 1002.8 |
| 20260501224303 | 60 | 42 | 3.0 | 6.0 | 0.06 | 0.89 | 0.89 | 98 | 1002.9 |
| 20260501224201 | 60 | 59 | 2.0 | 5.0 | 0.06 | 0.89 | 0.89 | 98 | 1003.0 |
| 20260501224102 | 60 | 23 | 2.0 | 6.0 | 0.06 | 0.88 | 0.88 | 98 | 1003.1 |
| 20260501224003 | 60 | 23 | 2.0 | 6.0 | 0.05 | 0.88 | 0.88 | 98 | 1003.1 |
| 20260501223902 | 60 | 23 | 3.0 | 6.0 | 0.06 | 0.88 | 0.88 | 98 | 1002.9 |
| 20260501223802 | 60 | 27 | 3.0 | 9.0 | 0.06 | 0.88 | 0.88 | 98 | 1002.8 |
| 20260501223702 | 60 | 32 | 3.0 | 9.0 | 0.06 | 0.88 | 0.88 | 98 | 1002.7 |
| 20260501223603 | 60 | 24 | 3.0 | 9.0 | 0.06 | 0.88 | 0.88 | 98 | 1002.5 |
| 20260501223502 | 60 | 4 | 3.0 | 10.0 | 0.06 | 0.88 | 0.88 | 98 | 1002.3 |
| 20260501223400 | 60 | 42 | 3.0 | 10.0 | 0.06 | 0.88 | 0.88 | 98 | 1002.1 |
| 20260501223258 | 60 | 30 | 3.0 | 10.0 | 0.06 | 0.88 | 0.88 | 98 | 1002.1 |
| 20260501223157 | 60 | 75 | 4.0 | 10.0 | 0.06 | 0.87 | 0.87 | 98 | 1002.0 |
| 20260501223055 | 60 | 56 | 3.0 | 10.0 | 0.06 | 0.87 | 0.87 | 98 | 1001.9 |
| 20260501222954 | 60 | 44 | 3.0 | 10.0 | 0.06 | 0.87 | 0.87 | 98 | 1001.8 |
| 20260501222852 | 60 | 44 | 3.0 | 10.0 | 0.06 | 0.87 | 0.87 | 98 | 1001.8 |
| 20260501222751 | 60 | 45 | 4.0 | 10.0 | 0.06 | 0.87 | 0.87 | 98 | 1001.7 |
| 20260501222649 | 60 | 52 | 4.0 | 10.0 | 0.06 | 0.87 | 0.87 | 98 | 1001.5 |
| 20260501222548 | 60 | 37 | 3.0 | 9.0 | 0.06 | 0.87 | 0.87 | 98 | 1001.5 |
| 20260501222446 | 60 | 32 | 4.0 | 9.0 | 0.06 | 0.87 | 0.87 | 98 | 1001.4 |
| 20260501222343 | 60 | 32 | 4.0 | 9.0 | 0.06 | 0.87 | 0.87 | 98 | 1001.2 |
| 20260501222243 | 60 | 48 | 4.0 | 9.0 | 0.06 | 0.87 | 0.87 | 98 | 1001.2 |
| 20260501222142 | 60 | 66 | 4.0 | 9.0 | 0.06 | 0.86 | 0.86 | 98 | 1001.2 |
| 20260501222039 | 60 | 86 | 3.0 | 9.0 | 0.06 | 0.86 | 0.86 | 98 | 1001.2 |
| 20260501221939 | 60 | 49 | 4.0 | 9.0 | 0.06 | 0.86 | 0.86 | 98 | 1001.1 |
| 20260501221836 | 60 | 62 | 4.0 | 9.0 | 0.06 | 0.86 | 0.86 | 98 | 1001.2 |
| 20260501221735 | 60 | 24 | 5.0 | 9.0 | 0.06 | 0.86 | 0.86 | 98 | 1001.2 |
| 20260501221634 | 60 | 35 | 4.0 | 9.0 | 0.06 | 0.86 | 0.86 | 98 | 1001.3 |
| 20260501221533 | 60 | 38 | 4.0 | 9.0 | 0.06 | 0.86 | 0.86 | 98 | 1001.4 |
| 20260501221432 | 60 | 52 | 4.0 | 9.0 | 0.06 | 0.86 | 0.86 | 98 | 1001.4 |
| 20260501221332 | 60 | 39 | 4.0 | 9.0 | 0.06 | 0.86 | 0.86 | 98 | 1001.3 |
| 20260501221232 | 60 | 55 | 5.0 | 11.0 | 0.06 | 0.85 | 0.85 | 98 | 1001.2 |
| 20260501221131 | 60 | 47 | 5.0 | 11.0 | 0.06 | 0.85 | 0.85 | 98 | 1001.1 |
| 20260501221031 | 60 | 34 | 6.0 | 11.0 | 0.06 | 0.85 | 0.85 | 98 | 1001.0 |
| 20260501220931 | 60 | 42 | 6.0 | 11.0 | 0.06 | 0.85 | 0.85 | 98 | 1001.0 |
| 20260501220833 | 60 | 47 | 5.0 | 11.0 | 0.06 | 0.85 | 0.85 | 98 | 1000.9 |
| 20260501220731 | 60 | 49 | 4.0 | 11.0 | 0.06 | 0.85 | 0.85 | 98 | 1000.9 |
| 20260501220631 | 60 | 66 | 5.0 | 11.0 | 0.06 | 0.85 | 0.85 | 97 | 1000.8 |
| 20260501220531 | 60 | 85 | 6.0 | 11.0 | 0.06 | 0.85 | 0.85 | 98 | 1000.9 |
| 20260501220432 | 60 | 83 | 5.0 | 11.0 | 0.06 | 0.85 | 0.85 | 98 | 1001.0 |
| 20260501220331 | 60 | 61 | 5.0 | 11.0 | 0.07 | 0.85 | 0.85 | 98 | 1001.1 |
| 20260501220232 | 60 | 48 | 5.0 | 7.0 | 0.07 | 0.85 | 0.85 | 98 | 1001.2 |
| 20260501220132 | 60 | 61 | 5.0 | 7.0 | 0.06 | 0.84 | 0.84 | 98 | 1001.3 |
| 20260501220032 | 60 | 65 | 4.0 | 7.0 | 0.06 | 0.84 | 0.84 | 98 | 1001.4 |
| 20260501215930 | 60 | 44 | 4.0 | 7.0 | 0.06 | 0.84 | 0.84 | 98 | 1001.4 |
| 20260501215833 | 60 | 66 | 3.0 | 7.0 | 0.06 | 0.84 | 0.84 | 98 | 1001.5 |
| 20260501215732 | 60 | 51 | 4.0 | 7.0 | 0.06 | 0.84 | 0.84 | 98 | 1001.6 |
| 20260501215632 | 60 | 39 | 4.0 | 7.0 | 0.06 | 0.84 | 0.84 | 98 | 1001.7 |
| 20260501215531 | 60 | 52 | 3.0 | 7.0 | 0.06 | 0.84 | 0.84 | 98 | 1001.8 |
| 20260501215432 | 60 | 61 | 4.0 | 7.0 | 0.06 | 0.84 | 0.84 | 98 | 1002.0 |
| 20260501215330 | 60 | 41 | 4.0 | 7.0 | 0.07 | 0.84 | 0.84 | 98 | 1002.0 |
| 20260501215229 | 60 | 68 | 4.0 | 7.0 | 0.07 | 0.84 | 0.84 | 98 | 1002.0 |
| 20260501215130 | 60 | 78 | 4.0 | 9.0 | 0.07 | 0.83 | 0.83 | 98 | 1002.0 |
| 20260501215033 | 60 | 56 | 4.0 | 9.0 | 0.06 | 0.83 | 0.83 | 98 | 1002.1 |
| 20260501214930 | 60 | 3 | 4.0 | 9.0 | 0.06 | 0.83 | 0.83 | 98 | 1002.1 |
| 20260501214831 | 60 | 69 | 4.0 | 9.0 | 0.06 | 0.83 | 0.83 | 98 | 1001.9 |
| 20260501214731 | 60 | 82 | 4.0 | 9.0 | 0.06 | 0.83 | 0.83 | 98 | 1002.0 |
| 20260501214631 | 60 | 65 | 4.0 | 9.0 | 0.06 | 0.83 | 0.83 | 98 | 1002.0 |
| 20260501214532 | 60 | 55 | 5.0 | 9.0 | 0.06 | 0.83 | 0.83 | 98 | 1002.1 |
| 20260501214431 | 60 | 55 | 5.0 | 9.0 | 0.06 | 0.83 | 0.83 | 98 | 1002.1 |
| 20260501214332 | 60 | 55 | 5.0 | 9.0 | 0.07 | 0.83 | 0.83 | 98 | 1002.2 |
| 20260501214230 | 60 | 56 | 5.0 | 9.0 | 0.07 | 0.83 | 0.83 | 98 | 1002.4 |
| 20260501214130 | 61 | 39 | 4.0 | 9.0 | 0.07 | 0.83 | 0.83 | 98 | 1002.4 |
| 20260501214031 | 61 | 41 | 4.0 | 7.0 | 0.07 | 0.83 | 0.83 | 98 | 1002.5 |
| 20260501213930 | 61 | 61 | 3.0 | 7.0 | 0.06 | 0.82 | 0.82 | 98 | 1002.6 |
| 20260501213832 | 61 | 54 | 1.0 | 6.0 | 0.06 | 0.82 | 0.82 | 98 | 1002.6 |
| 20260501213730 | 61 | 39 | 2.0 | 6.0 | 0.06 | 0.82 | 0.82 | 98 | 1002.6 |
| 20260501213631 | 61 | 38 | 4.0 | 6.0 | 0.06 | 0.82 | 0.82 | 98 | 1002.8 |
| 20260501213530 | 61 | 35 | 4.0 | 6.0 | 0.06 | 0.82 | 0.82 | 98 | 1002.7 |
| 20260501213430 | 61 | 23 | 4.0 | 6.0 | 0.07 | 0.82 | 0.82 | 98 | 1002.8 |
| 20260501213331 | 61 | 56 | 4.0 | 6.0 | 0.07 | 0.82 | 0.82 | 98 | 1002.8 |
| 20260501213230 | 61 | 38 | 4.0 | 6.0 | 0.07 | 0.82 | 0.82 | 98 | 1002.8 |
| 20260501213131 | 61 | 10 | 4.0 | 6.0 | 0.07 | 0.81 | 0.81 | 98 | 1002.8 |
| 20260501213031 | 61 | 32 | 4.0 | 6.0 | 0.06 | 0.81 | 0.81 | 98 | 1002.8 |
| 20260501212931 | 61 | 20 | 4.0 | 5.0 | 0.06 | 0.81 | 0.81 | 98 | 1002.8 |
| 20260501212830 | 61 | 0 | 4.0 | 5.0 | 0.06 | 0.81 | 0.81 | 98 | 1002.7 |
| 20260501212730 | 61 | 41 | 4.0 | 5.0 | 0.06 | 0.81 | 0.81 | 98 | 1002.6 |
| 20260501212631 | 61 | 27 | 3.0 | 5.0 | 0.06 | 0.81 | 0.81 | 98 | 1002.7 |
| 20260501212530 | 61 | 28 | 3.0 | 5.0 | 0.06 | 0.81 | 0.81 | 98 | 1002.6 |
| 20260501212430 | 61 | 44 | 3.0 | 5.0 | 0.07 | 0.81 | 0.81 | 98 | 1002.6 |
| 20260501212331 | 61 | 44 | 4.0 | 5.0 | 0.07 | 0.81 | 0.81 | 98 | 1002.7 |
| 20260501212230 | 61 | 38 | 4.0 | 5.0 | 0.07 | 0.81 | 0.81 | 98 | 1002.7 |
| 20260501212129 | 61 | 42 | 4.0 | 5.0 | 0.07 | 0.80 | 0.80 | 98 | 1002.8 |
| 20260501212026 | 61 | 44 | 4.0 | 5.0 | 0.06 | 0.80 | 0.80 | 98 | 1002.8 |
| 20260501211925 | 61 | 0 | 3.0 | 6.0 | 0.06 | 0.80 | 0.80 | 98 | 1002.8 |
| 20260501211823 | 61 | 44 | 2.0 | 9.0 | 0.06 | 0.80 | 0.80 | 98 | 1002.8 |
| 20260501211723 | 61 | 44 | 2.0 | 9.0 | 0.06 | 0.80 | 0.80 | 98 | 1002.7 |
| 20260501211621 | 61 | 21 | 2.0 | 9.0 | 0.06 | 0.80 | 0.80 | 98 | 1002.6 |
| 20260501211520 | 61 | 20 | 3.0 | 9.0 | 0.07 | 0.80 | 0.80 | 98 | 1002.5 |
| 20260501211418 | 61 | 18 | 3.0 | 9.0 | 0.07 | 0.80 | 0.80 | 98 | 1002.2 |
| 20260501211316 | 61 | 17 | 3.0 | 9.0 | 0.07 | 0.80 | 0.80 | 98 | 1002.1 |
| 20260501211214 | 61 | 37 | 3.0 | 9.0 | 0.06 | 0.79 | 0.79 | 98 | 1002.0 |
| 20260501211114 | 61 | 41 | 4.0 | 9.0 | 0.06 | 0.79 | 0.79 | 98 | 1001.9 |
| 20260501211012 | 61 | 27 | 5.0 | 9.0 | 0.06 | 0.79 | 0.79 | 98 | 1001.7 |
| 20260501210911 | 61 | 31 | 5.0 | 9.0 | 0.06 | 0.79 | 0.79 | 98 | 1001.7 |
| 20260501210809 | 61 | 44 | 4.0 | 6.0 | 0.06 | 0.79 | 0.79 | 98 | 1001.8 |
| 20260501210708 | 61 | 41 | 3.0 | 5.0 | 0.06 | 0.79 | 0.79 | 98 | 1001.9 |
| 20260501210605 | 61 | 44 | 3.0 | 5.0 | 0.06 | 0.79 | 0.79 | 98 | 1002.0 |
| 20260501210505 | 61 | 24 | 2.0 | 5.0 | 0.07 | 0.79 | 0.79 | 98 | 1002.2 |
| 20260501210403 | 61 | 4 | 2.0 | 5.0 | 0.07 | 0.78 | 0.78 | 98 | 1002.3 |
| 20260501210302 | 61 | 3 | 2.0 | 5.0 | 0.06 | 0.78 | 0.78 | 98 | 1002.5 |
| 20260501210200 | 61 | 3 | 2.0 | 5.0 | 0.06 | 0.78 | 0.78 | 98 | 1002.5 |
| 20260501210059 | 61 | 10 | 2.0 | 5.0 | 0.06 | 0.78 | 0.78 | 98 | 1002.6 |
| 20260501205957 | 61 | 0 | 2.0 | 5.0 | 0.06 | 0.78 | 0.78 | 98 | 1002.5 |
| 20260501205856 | 61 | 357 | 3.0 | 5.0 | 0.06 | 0.78 | 0.78 | 98 | 1002.5 |
| 20260501205754 | 61 | 0 | 3.0 | 5.0 | 0.06 | 0.78 | 0.78 | 98 | 1002.5 |
| 20260501205653 | 61 | 24 | 2.0 | 5.0 | 0.06 | 0.78 | 0.78 | 98 | 1002.4 |
| 20260501205552 | 61 | 24 | 3.0 | 5.0 | 0.06 | 0.78 | 0.78 | 98 | 1002.2 |
| 20260501205449 | 61 | 24 | 2.0 | 5.0 | 0.07 | 0.77 | 0.77 | 98 | 1002.1 |
| 20260501205348 | 61 | 42 | 2.0 | 4.0 | 0.06 | 0.77 | 0.77 | 98 | 1002.1 |
| 20260501205246 | 61 | 42 | 2.0 | 4.0 | 0.06 | 0.77 | 0.77 | 98 | 1002.0 |
| 20260501205145 | 61 | 41 | 2.0 | 4.0 | 0.06 | 0.77 | 0.77 | 98 | 1002.0 |
| 20260501205043 | 61 | 42 | 3.0 | 4.0 | 0.06 | 0.77 | 0.77 | 98 | 1002.0 |
| 20260501204938 | 61 | 44 | 2.0 | 6.0 | 0.06 | 0.77 | 0.77 | 98 | 1001.8 |
| 20260501204836 | 61 | 42 | 2.0 | 7.0 | 0.06 | 0.77 | 0.77 | 98 | 1001.8 |
| 20260501204735 | 61 | 42 | 2.0 | 7.0 | 0.06 | 0.77 | 0.77 | 98 | 1001.8 |
| 20260501204634 | 61 | 42 | 3.0 | 7.0 | 0.06 | 0.77 | 0.77 | 98 | 1001.8 |
| 20260501204531 | 61 | 48 | 3.0 | 7.0 | 0.06 | 0.77 | 0.77 | 98 | 1001.8 |
| 20260501204430 | 61 | 71 | 2.0 | 7.0 | 0.06 | 0.77 | 0.77 | 98 | 1001.8 |
| 20260501204331 | 61 | 37 | 2.0 | 7.0 | 0.06 | 0.76 | 0.76 | 98 | 1001.8 |
| 20260501204232 | 61 | 37 | 3.0 | 7.0 | 0.06 | 0.76 | 0.76 | 98 | 1001.8 |
| 20260501204131 | 61 | 41 | 4.0 | 7.0 | 0.06 | 0.76 | 0.76 | 98 | 1001.7 |
| 20260501204031 | 61 | 35 | 4.0 | 7.0 | 0.06 | 0.76 | 0.76 | 98 | 1001.5 |
| 20260501203931 | 61 | 56 | 5.0 | 9.0 | 0.06 | 0.76 | 0.76 | 98 | 1001.3 |
| 20260501203831 | 61 | 34 | 6.0 | 9.0 | 0.06 | 0.76 | 0.76 | 98 | 1001.2 |
| 20260501203731 | 61 | 31 | 4.0 | 10.0 | 0.06 | 0.76 | 0.76 | 98 | 1001.0 |
| 20260501203632 | 61 | 41 | 4.0 | 10.0 | 0.06 | 0.76 | 0.76 | 98 | 1000.9 |
| 20260501203532 | 61 | 52 | 5.0 | 10.0 | 0.06 | 0.75 | 0.75 | 98 | 1000.9 |
| 20260501203431 | 61 | 41 | 4.0 | 10.0 | 0.06 | 0.75 | 0.75 | 98 | 1001.1 |
| 20260501203331 | 61 | 18 | 4.0 | 10.0 | 0.06 | 0.75 | 0.75 | 98 | 1001.2 |
| 20260501203233 | 61 | 37 | 4.0 | 10.0 | 0.06 | 0.75 | 0.75 | 98 | 1001.3 |
| 20260501203131 | 61 | 58 | 4.0 | 10.0 | 0.06 | 0.75 | 0.75 | 98 | 1001.4 |
| 20260501203031 | 61 | 63 | 4.0 | 10.0 | 0.06 | 0.75 | 0.75 | 98 | 1001.4 |
| 20260501202933 | 61 | 55 | 4.0 | 10.0 | 0.06 | 0.75 | 0.75 | 98 | 1001.3 |
| 20260501202831 | 61 | 76 | 4.0 | 10.0 | 0.06 | 0.75 | 0.75 | 98 | 1001.4 |
| 20260501202731 | 61 | 44 | 3.0 | 7.0 | 0.06 | 0.75 | 0.75 | 98 | 1001.4 |
| 20260501202631 | 61 | 1 | 4.0 | 7.0 | 0.06 | 0.75 | 0.75 | 98 | 1001.5 |
| 20260501202532 | 62 | 0 | 4.0 | 7.0 | 0.06 | 0.75 | 0.75 | 98 | 1001.5 |
| 20260501202431 | 62 | 1 | 4.0 | 7.0 | 0.06 | 0.74 | 0.74 | 98 | 1001.6 |
| 20260501202329 | 62 | 1 | 4.0 | 7.0 | 0.06 | 0.74 | 0.74 | 98 | 1001.6 |
| 20260501202228 | 62 | 0 | 4.0 | 7.0 | 0.06 | 0.74 | 0.74 | 98 | 1001.6 |
| 20260501202129 | 62 | 24 | 3.0 | 7.0 | 0.06 | 0.74 | 0.74 | 98 | 1001.6 |
| 20260501202029 | 62 | 14 | 3.0 | 7.0 | 0.06 | 0.74 | 0.74 | 98 | 1001.7 |
| 20260501201928 | 62 | 35 | 3.0 | 7.0 | 0.06 | 0.74 | 0.74 | 98 | 1001.8 |
| 20260501201829 | 62 | 1 | 3.0 | 7.0 | 0.06 | 0.74 | 0.74 | 98 | 1001.9 |
| 20260501201730 | 62 | 347 | 3.0 | 7.0 | 0.06 | 0.74 | 0.74 | 98 | 1002.0 |
| 20260501201628 | 62 | 16 | 3.0 | 7.0 | 0.06 | 0.74 | 0.74 | 98 | 1002.0 |
| 20260501201528 | 62 | 31 | 3.0 | 7.0 | 0.06 | 0.73 | 0.73 | 98 | 1001.9 |
| 20260501201428 | 62 | 30 | 4.0 | 7.0 | 0.05 | 0.73 | 0.73 | 98 | 1001.8 |
| 20260501201330 | 62 | 1 | 4.0 | 7.0 | 0.06 | 0.73 | 0.73 | 98 | 1001.7 |
| 20260501201228 | 62 | 1 | 3.0 | 7.0 | 0.06 | 0.73 | 0.73 | 98 | 1001.3 |
| 20260501201128 | 62 | 25 | 4.0 | 7.0 | 0.06 | 0.73 | 0.73 | 98 | 1001.1 |
| 20260501201030 | 62 | 31 | 4.0 | 7.0 | 0.06 | 0.73 | 0.73 | 98 | 1000.9 |
| 20260501200928 | 62 | 59 | 5.0 | 7.0 | 0.06 | 0.73 | 0.73 | 98 | 1000.6 |
| 20260501200828 | 62 | 39 | 4.0 | 7.0 | 0.06 | 0.73 | 0.73 | 98 | 1000.5 |
| 20260501200729 | 62 | 3 | 4.0 | 7.0 | 0.06 | 0.73 | 0.73 | 98 | 1000.4 |
| 20260501200630 | 62 | 49 | 4.0 | 7.0 | 0.06 | 0.73 | 0.73 | 98 | 1000.5 |
| 20260501200528 | 62 | 30 | 4.0 | 7.0 | 0.06 | 0.72 | 0.72 | 98 | 1000.7 |
| 20260501200429 | 62 | 48 | 4.0 | 7.0 | 0.05 | 0.72 | 0.72 | 98 | 1000.8 |
| 20260501200329 | 62 | 47 | 5.0 | 7.0 | 0.05 | 0.72 | 0.72 | 98 | 1001.0 |
| 20260501200228 | 62 | 54 | 5.0 | 7.0 | 0.05 | 0.72 | 0.72 | 98 | 1001.0 |
| 20260501200128 | 62 | 37 | 4.0 | 7.0 | 0.06 | 0.72 | 0.72 | 98 | 1001.2 |
| 20260501200028 | 62 | 17 | 4.0 | 7.0 | 0.06 | 0.72 | 0.72 | 98 | 1001.1 |
| 20260501195928 | 62 | 28 | 4.0 | 7.0 | 0.06 | 0.72 | 0.72 | 98 | 1001.1 |
| 20260501195828 | 62 | 42 | 4.0 | 7.0 | 0.06 | 0.72 | 0.72 | 98 | 1001.1 |
| 20260501195728 | 62 | 35 | 4.0 | 7.0 | 0.06 | 0.72 | 0.72 | 98 | 1001.2 |
| 20260501195629 | 62 | 24 | 4.0 | 7.0 | 0.06 | 0.72 | 0.72 | 98 | 1001.2 |
| 20260501195528 | 62 | 37 | 4.0 | 6.0 | 0.05 | 0.71 | 0.71 | 98 | 1001.2 |
| 20260501195429 | 62 | 32 | 4.0 | 6.0 | 0.05 | 0.71 | 0.71 | 98 | 1001.2 |
| 20260501195329 | 62 | 31 | 4.0 | 6.0 | 0.05 | 0.71 | 0.71 | 98 | 1001.1 |
| 20260501195228 | 62 | 31 | 4.0 | 6.0 | 0.05 | 0.71 | 0.71 | 98 | 1001.0 |
| 20260501195128 | 62 | 39 | 4.0 | 9.0 | 0.06 | 0.71 | 0.71 | 98 | 1001.0 |
| 20260501195028 | 62 | 34 | 4.0 | 9.0 | 0.06 | 0.71 | 0.71 | 98 | 1001.3 |
| 20260501194930 | 62 | 32 | 2.0 | 9.0 | 0.06 | 0.71 | 0.71 | 98 | 1001.6 |
| 20260501194828 | 62 | 24 | 2.0 | 9.0 | 0.06 | 0.71 | 0.71 | 98 | 1001.9 |
| 20260501194727 | 62 | 4 | 1.0 | 9.0 | 0.06 | 0.71 | 0.71 | 98 | 1002.3 |
| 20260501194628 | 62 | 1 | 0.0 | 9.0 | 0.06 | 0.71 | 0.71 | 98 | 1002.4 |
| 20260501194528 | 62 | 0 | 1.0 | 9.0 | 0.06 | 0.71 | 0.71 | 98 | 1002.3 |
| 20260501194427 | 62 | 0 | 2.0 | 9.0 | 0.06 | 0.71 | 0.71 | 98 | 1002.2 |
| 20260501194327 | 62 | 47 | 3.0 | 9.0 | 0.05 | 0.70 | 0.70 | 98 | 1002.0 |
| 20260501194229 | 62 | 28 | 4.0 | 9.0 | 0.05 | 0.70 | 0.70 | 98 | 1001.9 |
| 20260501194128 | 62 | 4 | 3.0 | 6.0 | 0.05 | 0.70 | 0.70 | 98 | 1001.8 |
| 20260501194027 | 62 | 42 | 2.0 | 6.0 | 0.05 | 0.70 | 0.70 | 98 | 1001.7 |
| 20260501193928 | 62 | 44 | 3.0 | 6.0 | 0.06 | 0.70 | 0.70 | 98 | 1001.8 |
| 20260501193827 | 62 | 35 | 3.0 | 6.0 | 0.06 | 0.70 | 0.70 | 98 | 1001.8 |
| 20260501193728 | 62 | 1 | 3.0 | 6.0 | 0.06 | 0.70 | 0.70 | 98 | 1001.9 |
| 20260501193627 | 62 | 355 | 3.0 | 6.0 | 0.06 | 0.70 | 0.70 | 98 | 1002.0 |
| 20260501193529 | 62 | 1 | 3.0 | 6.0 | 0.06 | 0.69 | 0.69 | 98 | 1002.0 |
| 20260501193427 | 62 | 0 | 3.0 | 6.0 | 0.05 | 0.69 | 0.69 | 98 | 1001.9 |
| 20260501193328 | 62 | 52 | 3.0 | 4.0 | 0.05 | 0.69 | 0.69 | 98 | 1001.8 |
| 20260501193228 | 62 | 343 | 3.0 | 4.0 | 0.05 | 0.69 | 0.69 | 98 | 1001.7 |
| 20260501193127 | 62 | 1 | 3.0 | 4.0 | 0.05 | 0.69 | 0.69 | 98 | 1001.6 |
| 20260501193028 | 62 | 1 | 2.0 | 4.0 | 0.05 | 0.69 | 0.69 | 98 | 1001.5 |
| 20260501192928 | 62 | 45 | 0.0 | 4.0 | 0.05 | 0.69 | 0.69 | 98 | 1001.4 |
| 20260501192829 | 62 | 0 | 0.0 | 4.0 | 0.05 | 0.69 | 0.69 | 98 | 1001.3 |
| 20260501192728 | 62 | 31 | 0.0 | 4.0 | 0.05 | 0.69 | 0.69 | 98 | 1001.4 |
| 20260501192627 | 62 | 30 | 0.0 | 4.0 | 0.06 | 0.69 | 0.69 | 98 | 1001.3 |
| 20260501192529 | 62 | 31 | 0.0 | 4.0 | 0.06 | 0.68 | 0.68 | 98 | 1001.3 |
| 20260501192427 | 62 | 32 | 0.0 | 5.0 | 0.05 | 0.68 | 0.68 | 98 | 1001.3 |
| 20260501192328 | 62 | 38 | 0.0 | 5.0 | 0.05 | 0.68 | 0.68 | 98 | 1001.4 |
| 20260501192227 | 62 | 61 | 0.0 | 5.0 | 0.05 | 0.68 | 0.68 | 98 | 1001.5 |
| 20260501192129 | 62 | 62 | 1.0 | 5.0 | 0.05 | 0.68 | 0.68 | 98 | 1001.6 |
| 20260501192028 | 62 | 63 | 2.0 | 5.0 | 0.05 | 0.68 | 0.68 | 98 | 1001.6 |
| 20260501191927 | 62 | 61 | 2.0 | 5.0 | 0.05 | 0.68 | 0.68 | 98 | 1001.6 |
| 20260501191828 | 62 | 61 | 2.0 | 5.0 | 0.05 | 0.68 | 0.68 | 98 | 1001.6 |
| 20260501191727 | 62 | 27 | 2.0 | 5.0 | 0.05 | 0.68 | 0.68 | 98 | 1001.6 |
| 20260501191628 | 62 | 27 | 3.0 | 6.0 | 0.05 | 0.68 | 0.68 | 98 | 1001.5 |
| 20260501191527 | 62 | 31 | 3.0 | 6.0 | 0.05 | 0.68 | 0.68 | 98 | 1001.5 |
| 20260501191428 | 62 | 38 | 3.0 | 6.0 | 0.06 | 0.68 | 0.68 | 98 | 1001.5 |
| 20260501191326 | 62 | 49 | 3.0 | 6.0 | 0.05 | 0.67 | 0.67 | 98 | 1001.5 |
| 20260501191227 | 62 | 49 | 2.0 | 6.0 | 0.05 | 0.67 | 0.67 | 98 | 1001.5 |
| 20260501191128 | 62 | 59 | 2.0 | 6.0 | 0.05 | 0.67 | 0.67 | 98 | 1001.4 |
| 20260501191027 | 62 | 66 | 2.0 | 6.0 | 0.05 | 0.67 | 0.67 | 98 | 1001.4 |
| 20260501190927 | 62 | 66 | 2.0 | 6.0 | 0.05 | 0.67 | 0.67 | 98 | 1001.3 |
| 20260501190829 | 62 | 61 | 3.0 | 6.0 | 0.05 | 0.67 | 0.67 | 98 | 1001.2 |
| 20260501190728 | 62 | 82 | 3.0 | 6.0 | 0.05 | 0.67 | 0.67 | 98 | 1001.1 |
| 20260501190627 | 62 | 37 | 3.0 | 6.0 | 0.05 | 0.67 | 0.67 | 98 | 1000.9 |
| 20260501190526 | 62 | 62 | 3.0 | 6.0 | 0.06 | 0.67 | 0.67 | 98 | 1000.9 |
| 20260501190426 | 62 | 34 | 3.0 | 6.0 | 0.06 | 0.67 | 0.67 | 98 | 1001.1 |
| 20260501190327 | 62 | 32 | 2.0 | 6.0 | 0.06 | 0.67 | 0.67 | 98 | 1001.4 |
| 20260501190226 | 62 | 117 | 3.0 | 7.0 | 0.06 | 0.67 | 0.67 | 98 | 1001.7 |
| 20260501190128 | 62 | 117 | 4.0 | 7.0 | 0.05 | 0.66 | 0.66 | 98 | 1001.9 |
| 20260501190028 | 62 | 113 | 5.0 | 10.0 | 0.05 | 0.66 | 0.66 | 98 | 1002.1 |
| 20260501185927 | 62 | 114 | 5.0 | 10.0 | 0.05 | 0.66 | 0.66 | 98 | 1002.1 |
| 20260501185826 | 62 | 120 | 4.0 | 10.0 | 0.05 | 0.66 | 0.66 | 98 | 1001.9 |
| 20260501185728 | 62 | 110 | 4.0 | 10.0 | 0.05 | 0.66 | 0.66 | 98 | 1001.7 |
| 20260501185627 | 62 | 94 | 4.0 | 10.0 | 0.06 | 0.66 | 0.66 | 98 | 1001.4 |
| 20260501185527 | 62 | 58 | 3.0 | 10.0 | 0.06 | 0.66 | 0.66 | 98 | 1001.2 |
| 20260501185426 | 62 | 100 | 4.0 | 10.0 | 0.06 | 0.66 | 0.66 | 98 | 1001.0 |
| 20260501185327 | 62 | 97 | 4.0 | 10.0 | 0.06 | 0.66 | 0.66 | 98 | 1001.0 |
| 20260501185227 | 62 | 52 | 5.0 | 10.0 | 0.06 | 0.65 | 0.65 | 98 | 1001.0 |
| 20260501185126 | 62 | 75 | 4.0 | 10.0 | 0.05 | 0.65 | 0.65 | 98 | 1001.0 |
| 20260501185027 | 62 | 54 | 2.0 | 6.0 | 0.05 | 0.65 | 0.65 | 98 | 1001.2 |
| 20260501184926 | 62 | 62 | 3.0 | 6.0 | 0.05 | 0.65 | 0.65 | 98 | 1001.1 |
| 20260501184826 | 62 | 55 | 4.0 | 6.0 | 0.06 | 0.65 | 0.65 | 98 | 1001.1 |
| 20260501184726 | 62 | 89 | 2.0 | 6.0 | 0.06 | 0.65 | 0.65 | 98 | 1001.1 |
| 20260501184627 | 62 | 75 | 2.0 | 6.0 | 0.06 | 0.65 | 0.65 | 98 | 1001.2 |
| 20260501184526 | 62 | 41 | 2.0 | 6.0 | 0.06 | 0.65 | 0.65 | 98 | 1001.1 |
| 20260501184426 | 62 | 37 | 2.0 | 6.0 | 0.06 | 0.65 | 0.65 | 98 | 1001.1 |
| 20260501184328 | 62 | 62 | 3.0 | 7.0 | 0.06 | 0.65 | 0.65 | 98 | 1001.0 |
| 20260501184226 | 62 | 47 | 4.0 | 7.0 | 0.06 | 0.65 | 0.65 | 98 | 1001.0 |
| 20260501184127 | 62 | 72 | 4.0 | 9.0 | 0.06 | 0.65 | 0.65 | 98 | 1000.8 |
| 20260501184027 | 62 | 56 | 4.0 | 9.0 | 0.07 | 0.65 | 0.65 | 98 | 1000.8 |
| 20260501183927 | 62 | 73 | 4.0 | 9.0 | 0.06 | 0.64 | 0.64 | 98 | 1000.7 |
| 20260501183826 | 62 | 54 | 4.0 | 9.0 | 0.06 | 0.64 | 0.64 | 98 | 1000.5 |
| 20260501183726 | 62 | 58 | 4.0 | 9.0 | 0.06 | 0.64 | 0.64 | 98 | 1000.4 |
| 20260501183628 | 62 | 65 | 4.0 | 9.0 | 0.06 | 0.64 | 0.64 | 98 | 1000.3 |
| 20260501183526 | 62 | 65 | 4.0 | 9.0 | 0.06 | 0.64 | 0.64 | 98 | 1000.3 |
| 20260501183426 | 62 | 42 | 5.0 | 9.0 | 0.06 | 0.64 | 0.64 | 98 | 1000.2 |
| 20260501183327 | 62 | 59 | 5.0 | 9.0 | 0.06 | 0.64 | 0.64 | 98 | 1000.4 |
| 20260501183226 | 62 | 52 | 4.0 | 9.0 | 0.07 | 0.64 | 0.64 | 98 | 1000.4 |
| 20260501183126 | 62 | 38 | 3.0 | 7.0 | 0.07 | 0.64 | 0.64 | 98 | 1000.6 |
| 20260501183026 | 62 | 55 | 4.0 | 7.0 | 0.07 | 0.64 | 0.64 | 98 | 1000.8 |
| 20260501182927 | 62 | 49 | 3.0 | 7.0 | 0.07 | 0.64 | 0.64 | 98 | 1000.8 |
| 20260501182826 | 62 | 69 | 3.0 | 6.0 | 0.07 | 0.64 | 0.64 | 98 | 1000.9 |
| 20260501182726 | 62 | 72 | 3.0 | 6.0 | 0.07 | 0.63 | 0.63 | 98 | 1001.1 |
| 20260501182628 | 62 | 76 | 3.0 | 6.0 | 0.06 | 0.63 | 0.63 | 98 | 1001.1 |
| 20260501182527 | 62 | 65 | 4.0 | 6.0 | 0.06 | 0.63 | 0.63 | 98 | 1001.3 |
| 20260501182426 | 62 | 59 | 4.0 | 6.0 | 0.07 | 0.63 | 0.63 | 98 | 1001.3 |
| 20260501182327 | 62 | 71 | 3.0 | 5.0 | 0.07 | 0.63 | 0.63 | 98 | 1001.3 |
| 20260501182227 | 62 | 71 | 3.0 | 5.0 | 0.07 | 0.63 | 0.63 | 98 | 1001.3 |
| 20260501182126 | 62 | 107 | 2.0 | 5.0 | 0.07 | 0.63 | 0.63 | 98 | 1001.3 |
| 20260501182026 | 62 | 66 | 1.0 | 5.0 | 0.07 | 0.63 | 0.63 | 98 | 1001.3 |
| 20260501181927 | 62 | 66 | 1.0 | 5.0 | 0.07 | 0.63 | 0.63 | 98 | 1001.3 |
| 20260501181826 | 62 | 44 | 1.0 | 5.0 | 0.07 | 0.63 | 0.63 | 98 | 1001.3 |
| 20260501181726 | 62 | 44 | 2.0 | 6.0 | 0.08 | 0.63 | 0.63 | 98 | 1001.2 |
| 20260501181627 | 62 | 44 | 3.0 | 7.0 | 0.08 | 0.63 | 0.63 | 98 | 1001.0 |
| 20260501181526 | 62 | 54 | 3.0 | 7.0 | 0.08 | 0.63 | 0.63 | 98 | 1000.8 |
| 20260501181426 | 62 | 31 | 3.0 | 7.0 | 0.07 | 0.62 | 0.62 | 98 | 1000.6 |
| 20260501181325 | 62 | 35 | 3.0 | 7.0 | 0.07 | 0.62 | 0.62 | 98 | 1000.5 |
| 20260501181227 | 62 | 48 | 3.0 | 11.0 | 0.07 | 0.62 | 0.62 | 98 | 1000.4 |
| 20260501181126 | 62 | 79 | 4.0 | 11.0 | 0.07 | 0.62 | 0.62 | 98 | 1000.3 |
| 20260501181025 | 62 | 41 | 4.0 | 11.0 | 0.07 | 0.62 | 0.62 | 98 | 1000.2 |
| 20260501180926 | 62 | 38 | 4.0 | 11.0 | 0.07 | 0.62 | 0.62 | 98 | 1000.2 |
| 20260501180826 | 62 | 39 | 4.0 | 11.0 | 0.08 | 0.62 | 0.62 | 98 | 1000.0 |
| 20260501180726 | 62 | 65 | 4.0 | 11.0 | 0.08 | 0.62 | 0.62 | 98 | 1000.0 |
| 20260501180625 | 62 | 10 | 3.0 | 11.0 | 0.08 | 0.61 | 0.61 | 98 | 999.9 |
| 20260501180527 | 62 | 48 | 2.0 | 11.0 | 0.07 | 0.61 | 0.61 | 98 | 999.8 |
| 20260501180425 | 62 | 48 | 4.0 | 11.0 | 0.07 | 0.61 | 0.61 | 98 | 999.5 |
| 20260501180326 | 62 | 83 | 4.0 | 11.0 | 0.07 | 0.61 | 0.61 | 98 | 999.2 |
| 20260501180226 | 62 | 49 | 4.0 | 9.0 | 0.07 | 0.61 | 0.61 | 98 | 999.2 |
| 20260501180125 | 62 | 68 | 5.0 | 9.0 | 0.07 | 0.61 | 0.61 | 98 | 999.4 |
| 20260501180025 | 62 | 82 | 5.0 | 9.0 | 0.07 | 0.61 | 0.61 | 98 | 999.5 |
| 20260501175926 | 62 | 54 | 4.0 | 9.0 | 0.08 | 0.61 | 0.61 | 98 | 999.7 |
| 20260501175826 | 62 | 52 | 3.0 | 9.0 | 0.08 | 0.61 | 0.61 | 98 | 999.8 |
| 20260501175725 | 62 | 45 | 4.0 | 9.0 | 0.08 | 0.61 | 0.61 | 98 | 999.8 |
| 20260501175627 | 62 | 37 | 5.0 | 11.0 | 0.07 | 0.60 | 0.60 | 98 | 999.8 |
| 20260501175526 | 62 | 47 | 5.0 | 11.0 | 0.07 | 0.60 | 0.60 | 98 | 999.7 |
| 20260501175425 | 62 | 41 | 4.0 | 11.0 | 0.07 | 0.60 | 0.60 | 98 | 999.6 |
| 20260501175325 | 62 | 49 | 4.0 | 11.0 | 0.07 | 0.60 | 0.60 | 98 | 999.4 |
| 20260501175225 | 62 | 59 | 4.0 | 11.0 | 0.07 | 0.60 | 0.60 | 98 | 999.3 |
| 20260501175126 | 62 | 65 | 4.0 | 11.0 | 0.07 | 0.60 | 0.60 | 98 | 999.1 |
| 20260501175025 | 62 | 83 | 4.0 | 11.0 | 0.08 | 0.60 | 0.60 | 98 | 998.7 |
| 20260501174925 | 62 | 55 | 5.0 | 11.0 | 0.08 | 0.59 | 0.59 | 98 | 998.3 |
| 20260501174827 | 62 | 30 | 6.0 | 11.0 | 0.07 | 0.59 | 0.59 | 98 | 997.8 |
| 20260501174725 | 62 | 61 | 6.0 | 11.0 | 0.07 | 0.59 | 0.59 | 98 | 997.8 |
| 20260501174625 | 62 | 76 | 5.0 | 11.0 | 0.07 | 0.59 | 0.59 | 98 | 998.1 |
| 20260501174526 | 62 | 90 | 4.0 | 11.0 | 0.07 | 0.59 | 0.59 | 98 | 998.5 |
| 20260501174427 | 62 | 68 | 4.0 | 11.0 | 0.07 | 0.59 | 0.59 | 98 | 999.0 |
| 20260501174325 | 62 | 63 | 4.0 | 11.0 | 0.07 | 0.59 | 0.59 | 98 | 999.6 |
| 20260501174224 | 62 | 83 | 5.0 | 11.0 | 0.08 | 0.59 | 0.59 | 98 | 1000.1 |
| 20260501174126 | 62 | 71 | 4.0 | 11.0 | 0.08 | 0.58 | 0.58 | 98 | 1000.6 |
| 20260501174025 | 62 | 48 | 4.0 | 9.0 | 0.07 | 0.58 | 0.58 | 98 | 1000.8 |
| 20260501173925 | 62 | 66 | 5.0 | 9.0 | 0.07 | 0.58 | 0.58 | 98 | 1001.1 |
| 20260501173825 | 62 | 41 | 4.0 | 9.0 | 0.07 | 0.58 | 0.58 | 98 | 1001.3 |
| 20260501173726 | 62 | 37 | 3.0 | 9.0 | 0.07 | 0.58 | 0.58 | 98 | 1001.4 |
| 20260501173624 | 62 | 18 | 3.0 | 9.0 | 0.07 | 0.58 | 0.58 | 98 | 1001.6 |
| 20260501173525 | 62 | 31 | 4.0 | 9.0 | 0.08 | 0.58 | 0.58 | 98 | 1001.6 |
| 20260501173426 | 62 | 51 | 4.0 | 9.0 | 0.08 | 0.58 | 0.58 | 98 | 1001.6 |
| 20260501173325 | 62 | 44 | 4.0 | 6.0 | 0.08 | 0.57 | 0.57 | 98 | 1001.6 |
| 20260501173225 | 62 | 7 | 3.0 | 6.0 | 0.07 | 0.57 | 0.57 | 98 | 1001.6 |
| 20260501173126 | 62 | 0 | 3.0 | 6.0 | 0.07 | 0.57 | 0.57 | 98 | 1001.7 |
| 20260501173026 | 62 | 37 | 3.0 | 6.0 | 0.07 | 0.57 | 0.57 | 98 | 1001.7 |
| 20260501172924 | 62 | 39 | 3.0 | 6.0 | 0.07 | 0.57 | 0.57 | 98 | 1001.8 |
| 20260501172825 | 62 | 30 | 3.0 | 6.0 | 0.07 | 0.57 | 0.57 | 98 | 1001.8 |
| 20260501172726 | 62 | 25 | 4.0 | 6.0 | 0.08 | 0.57 | 0.57 | 98 | 1002.0 |
| 20260501172624 | 62 | 34 | 4.0 | 6.0 | 0.08 | 0.57 | 0.57 | 98 | 1002.0 |
| 20260501172525 | 62 | 24 | 3.0 | 6.0 | 0.08 | 0.56 | 0.56 | 98 | 1002.1 |
| 20260501172424 | 62 | 24 | 3.0 | 5.0 | 0.07 | 0.56 | 0.56 | 98 | 1002.2 |
| 20260501172326 | 62 | 61 | 3.0 | 5.0 | 0.07 | 0.56 | 0.56 | 98 | 1002.2 |
| 20260501172224 | 62 | 49 | 3.0 | 5.0 | 0.07 | 0.56 | 0.56 | 98 | 1002.2 |
| 20260501172125 | 62 | 28 | 4.0 | 5.0 | 0.07 | 0.56 | 0.56 | 98 | 1002.3 |
| 20260501172026 | 62 | 4 | 3.0 | 5.0 | 0.07 | 0.56 | 0.56 | 98 | 1002.4 |
| 20260501171925 | 62 | 34 | 2.0 | 5.0 | 0.08 | 0.56 | 0.56 | 98 | 1002.4 |
| 20260501171824 | 62 | 28 | 3.0 | 5.0 | 0.08 | 0.56 | 0.56 | 98 | 1002.5 |
| 20260501171725 | 62 | 31 | 3.0 | 5.0 | 0.07 | 0.55 | 0.55 | 98 | 1002.6 |
| 20260501171624 | 62 | 16 | 3.0 | 5.0 | 0.07 | 0.55 | 0.55 | 98 | 1002.8 |
| 20260501171524 | 62 | 18 | 2.0 | 5.0 | 0.07 | 0.55 | 0.55 | 98 | 1002.8 |
| 20260501171424 | 62 | 11 | 2.0 | 5.0 | 0.07 | 0.55 | 0.55 | 98 | 1003.0 |
| 20260501171325 | 62 | 10 | 2.0 | 6.0 | 0.07 | 0.55 | 0.55 | 98 | 1003.1 |
| 20260501171225 | 62 | 329 | 2.0 | 6.0 | 0.07 | 0.55 | 0.55 | 98 | 1003.1 |
| 20260501171124 | 62 | 329 | 3.0 | 6.0 | 0.08 | 0.55 | 0.55 | 98 | 1003.1 |
| 20260501171024 | 62 | 0 | 3.0 | 10.0 | 0.08 | 0.55 | 0.55 | 98 | 1003.2 |
| 20260501170924 | 62 | 354 | 3.0 | 10.0 | 0.08 | 0.55 | 0.55 | 98 | 1003.2 |
| 20260501170824 | 62 | 331 | 3.0 | 10.0 | 0.07 | 0.54 | 0.54 | 98 | 1003.0 |
| 20260501170724 | 62 | 25 | 3.0 | 10.0 | 0.07 | 0.54 | 0.54 | 98 | 1002.8 |
| 20260501170626 | 62 | 11 | 3.0 | 10.0 | 0.07 | 0.54 | 0.54 | 98 | 1002.8 |
| 20260501170524 | 62 | 30 | 4.0 | 10.0 | 0.07 | 0.54 | 0.54 | 98 | 1002.7 |
| 20260501170425 | 62 | 39 | 3.0 | 10.0 | 0.07 | 0.54 | 0.54 | 98 | 1002.8 |
| 20260501170326 | 62 | 37 | 3.0 | 10.0 | 0.08 | 0.54 | 0.54 | 98 | 1002.8 |
| 20260501170225 | 62 | 32 | 4.0 | 10.0 | 0.08 | 0.54 | 0.54 | 98 | 1002.9 |
| 20260501170124 | 62 | 38 | 4.0 | 10.0 | 0.08 | 0.54 | 0.54 | 98 | 1002.7 |
| 20260501170024 | 62 | 24 | 4.0 | 9.0 | 0.08 | 0.53 | 0.53 | 98 | 1002.6 |
| 20260501165926 | 62 | 59 | 4.0 | 9.0 | 0.07 | 0.53 | 0.53 | 98 | 1002.4 |
| 20260501165824 | 62 | 37 | 4.0 | 9.0 | 0.07 | 0.53 | 0.53 | 98 | 1002.2 |
| 20260501165724 | 62 | 42 | 4.0 | 9.0 | 0.07 | 0.53 | 0.53 | 98 | 1002.2 |
| 20260501165625 | 62 | 39 | 4.0 | 9.0 | 0.07 | 0.53 | 0.53 | 98 | 1002.3 |
| 20260501165524 | 62 | 27 | 4.0 | 7.0 | 0.08 | 0.53 | 0.53 | 98 | 1002.5 |
| 20260501165424 | 62 | 51 | 4.0 | 7.0 | 0.08 | 0.53 | 0.53 | 98 | 1002.5 |
| 20260501165324 | 62 | 31 | 3.0 | 7.0 | 0.08 | 0.53 | 0.53 | 98 | 1002.7 |
| 20260501165225 | 61 | 13 | 3.0 | 7.0 | 0.08 | 0.53 | 0.53 | 98 | 1002.8 |
| 20260501165125 | 61 | 18 | 4.0 | 7.0 | 0.07 | 0.52 | 0.52 | 98 | 1002.8 |
| 20260501165024 | 61 | 44 | 3.0 | 7.0 | 0.07 | 0.52 | 0.52 | 98 | 1002.8 |
| 20260501164925 | 61 | 16 | 2.0 | 7.0 | 0.07 | 0.52 | 0.52 | 98 | 1002.8 |
| 20260501164823 | 61 | 28 | 2.0 | 6.0 | 0.07 | 0.52 | 0.52 | 98 | 1002.7 |
| 20260501164724 | 61 | 78 | 3.0 | 6.0 | 0.07 | 0.52 | 0.52 | 98 | 1002.8 |
| 20260501164625 | 61 | 63 | 2.0 | 6.0 | 0.08 | 0.52 | 0.52 | 98 | 1003.0 |
| 20260501164525 | 61 | 45 | 2.0 | 6.0 | 0.08 | 0.52 | 0.52 | 98 | 1003.1 |
| 20260501164425 | 61 | 34 | 2.0 | 6.0 | 0.08 | 0.52 | 0.52 | 98 | 1003.1 |
| 20260501164323 | 61 | 73 | 2.0 | 6.0 | 0.08 | 0.51 | 0.51 | 98 | 1003.0 |
| 20260501164224 | 61 | 72 | 4.0 | 6.0 | 0.07 | 0.51 | 0.51 | 98 | 1003.0 |
| 20260501164124 | 61 | 48 | 3.0 | 6.0 | 0.07 | 0.51 | 0.51 | 98 | 1002.8 |
| 20260501164024 | 61 | 34 | 3.0 | 6.0 | 0.07 | 0.51 | 0.51 | 98 | 1002.7 |
| 20260501163924 | 61 | 51 | 4.0 | 6.0 | 0.07 | 0.51 | 0.51 | 98 | 1002.4 |
| 20260501163825 | 61 | 61 | 4.0 | 6.0 | 0.08 | 0.51 | 0.51 | 98 | 1002.3 |
| 20260501163723 | 61 | 54 | 4.0 | 6.0 | 0.08 | 0.51 | 0.51 | 98 | 1002.5 |
| 20260501163624 | 61 | 48 | 4.0 | 6.0 | 0.08 | 0.51 | 0.51 | 98 | 1002.6 |
| 20260501163524 | 61 | 73 | 4.0 | 6.0 | 0.07 | 0.50 | 0.50 | 97 | 1002.9 |
| 20260501163423 | 61 | 28 | 3.0 | 6.0 | 0.07 | 0.50 | 0.50 | 97 | 1002.9 |
| 20260501163323 | 61 | 59 | 4.0 | 6.0 | 0.07 | 0.50 | 0.50 | 97 | 1003.1 |
| 20260501163223 | 61 | 54 | 4.0 | 6.0 | 0.07 | 0.50 | 0.50 | 97 | 1003.2 |
| 20260501163125 | 61 | 49 | 4.0 | 6.0 | 0.07 | 0.50 | 0.50 | 97 | 1003.3 |
| 20260501163023 | 61 | 39 | 3.0 | 6.0 | 0.07 | 0.50 | 0.50 | 97 | 1003.4 |
| 20260501162923 | 61 | 56 | 3.0 | 6.0 | 0.08 | 0.50 | 0.50 | 97 | 1003.4 |
| 20260501162823 | 61 | 30 | 4.0 | 6.0 | 0.08 | 0.50 | 0.50 | 97 | 1003.5 |
| 20260501162724 | 61 | 66 | 3.0 | 6.0 | 0.07 | 0.49 | 0.49 | 97 | 1003.6 |
| 20260501162623 | 61 | 71 | 3.0 | 6.0 | 0.07 | 0.49 | 0.49 | 97 | 1003.5 |
| 20260501162523 | 61 | 82 | 4.0 | 6.0 | 0.07 | 0.49 | 0.49 | 97 | 1003.6 |
| 20260501162425 | 61 | 39 | 3.0 | 7.0 | 0.07 | 0.49 | 0.49 | 98 | 1003.7 |
| 20260501162323 | 61 | 56 | 3.0 | 7.0 | 0.07 | 0.49 | 0.49 | 98 | 1003.7 |
| 20260501162223 | 61 | 35 | 3.0 | 7.0 | 0.07 | 0.49 | 0.49 | 98 | 1003.9 |
| 20260501162125 | 61 | 83 | 4.0 | 7.0 | 0.07 | 0.49 | 0.49 | 98 | 1004.0 |
| 20260501162023 | 62 | 37 | 4.0 | 7.0 | 0.08 | 0.49 | 0.49 | 98 | 1004.0 |
| 20260501161924 | 62 | 45 | 4.0 | 7.0 | 0.07 | 0.48 | 0.48 | 98 | 1004.0 |
| 20260501161824 | 62 | 49 | 4.0 | 7.0 | 0.07 | 0.48 | 0.48 | 98 | 1004.0 |
| 20260501161724 | 62 | 25 | 3.0 | 7.0 | 0.07 | 0.48 | 0.48 | 98 | 1004.0 |
| 20260501161623 | 62 | 44 | 4.0 | 7.0 | 0.07 | 0.48 | 0.48 | 98 | 1003.9 |
| 20260501161523 | 62 | 35 | 4.0 | 7.0 | 0.07 | 0.48 | 0.48 | 98 | 1003.9 |
| 20260501161423 | 62 | 45 | 4.0 | 6.0 | 0.07 | 0.48 | 0.48 | 98 | 1003.9 |
| 20260501161323 | 62 | 21 | 4.0 | 6.0 | 0.07 | 0.48 | 0.48 | 97 | 1003.9 |
| 20260501161223 | 62 | 37 | 4.0 | 6.0 | 0.07 | 0.47 | 0.47 | 98 | 1003.9 |
| 20260501161124 | 62 | 18 | 4.0 | 6.0 | 0.07 | 0.47 | 0.47 | 97 | 1004.0 |
| 20260501161023 | 62 | 38 | 2.0 | 6.0 | 0.07 | 0.47 | 0.47 | 98 | 1004.1 |
| 20260501160923 | 62 | 37 | 0.0 | 3.0 | 0.07 | 0.47 | 0.47 | 97 | 1004.3 |
| 20260501160823 | 62 | 41 | 0.0 | 3.0 | 0.07 | 0.47 | 0.47 | 98 | 1004.4 |
| 20260501160724 | 62 | 30 | 0.0 | 3.0 | 0.07 | 0.47 | 0.47 | 98 | 1004.7 |
| 20260501160622 | 62 | 13 | 0.0 | 4.0 | 0.07 | 0.47 | 0.47 | 98 | 1004.7 |
| 20260501160524 | 62 | 10 | 0.0 | 6.0 | 0.07 | 0.47 | 0.47 | 98 | 1004.8 |
| 20260501160424 | 62 | 13 | 1.0 | 6.0 | 0.07 | 0.46 | 0.46 | 98 | 1004.8 |
| 20260501160322 | 62 | 20 | 1.0 | 6.0 | 0.06 | 0.46 | 0.46 | 98 | 1004.8 |
| 20260501160223 | 62 | 0 | 1.0 | 7.0 | 0.07 | 0.46 | 0.46 | 98 | 1004.7 |
| 20260501160122 | 62 | 1 | 2.0 | 7.0 | 0.07 | 0.46 | 0.46 | 98 | 1004.7 |
| 20260501160024 | 62 | 4 | 1.0 | 7.0 | 0.07 | 0.46 | 0.46 | 98 | 1004.7 |
| 20260501155922 | 62 | 4 | 1.0 | 7.0 | 0.07 | 0.46 | 0.46 | 98 | 1004.5 |
| 20260501155823 | 62 | 1 | 2.0 | 7.0 | 0.07 | 0.46 | 0.46 | 98 | 1004.4 |
| 20260501155723 | 62 | 1 | 3.0 | 7.0 | 0.07 | 0.46 | 0.46 | 98 | 1004.4 |
| 20260501155622 | 62 | 68 | 3.0 | 7.0 | 0.07 | 0.45 | 0.45 | 98 | 1004.4 |
| 20260501155523 | 62 | 28 | 3.0 | 7.0 | 0.06 | 0.45 | 0.45 | 98 | 1004.3 |
| 20260501155422 | 62 | 17 | 3.0 | 7.0 | 0.06 | 0.45 | 0.45 | 98 | 1004.2 |
| 20260501155324 | 62 | 25 | 3.0 | 7.0 | 0.06 | 0.45 | 0.45 | 98 | 1004.2 |
| 20260501155222 | 62 | 48 | 3.0 | 6.0 | 0.07 | 0.45 | 0.45 | 98 | 1004.2 |
| 20260501155122 | 62 | 18 | 3.0 | 6.0 | 0.07 | 0.45 | 0.45 | 97 | 1004.2 |
| 20260501155023 | 62 | 25 | 3.0 | 9.0 | 0.07 | 0.45 | 0.45 | 97 | 1004.2 |
| 20260501154922 | 62 | 37 | 2.0 | 9.0 | 0.07 | 0.45 | 0.45 | 97 | 1004.2 |
| 20260501154823 | 62 | 38 | 3.0 | 9.0 | 0.07 | 0.45 | 0.45 | 97 | 1004.3 |
| 20260501154722 | 62 | 27 | 3.0 | 9.0 | 0.07 | 0.45 | 0.45 | 97 | 1004.2 |
| 20260501154623 | 62 | 0 | 4.0 | 9.0 | 0.06 | 0.44 | 0.44 | 97 | 1004.2 |
| 20260501154523 | 62 | 14 | 4.0 | 9.0 | 0.06 | 0.44 | 0.44 | 97 | 1004.2 |
| 20260501154422 | 62 | 20 | 4.0 | 9.0 | 0.06 | 0.44 | 0.44 | 97 | 1004.2 |
| 20260501154323 | 62 | 30 | 4.0 | 9.0 | 0.07 | 0.44 | 0.44 | 97 | 1004.1 |
| 20260501154222 | 62 | 23 | 4.0 | 9.0 | 0.07 | 0.44 | 0.44 | 98 | 1004.1 |
| 20260501154123 | 62 | 96 | 5.0 | 9.0 | 0.07 | 0.44 | 0.44 | 98 | 1004.1 |
| 20260501154022 | 62 | 27 | 4.0 | 9.0 | 0.07 | 0.44 | 0.44 | 98 | 1004.1 |
| 20260501153924 | 62 | 56 | 4.0 | 9.0 | 0.07 | 0.43 | 0.43 | 98 | 1004.0 |
| 20260501153822 | 62 | 20 | 4.0 | 9.0 | 0.06 | 0.43 | 0.43 | 98 | 1004.0 |
| 20260501153722 | 62 | 31 | 4.0 | 9.0 | 0.06 | 0.43 | 0.43 | 98 | 1003.9 |
| 20260501153624 | 62 | 4 | 4.0 | 9.0 | 0.06 | 0.43 | 0.43 | 98 | 1003.9 |
| 20260501153522 | 62 | 31 | 4.0 | 9.0 | 0.06 | 0.43 | 0.43 | 98 | 1003.9 |
| 20260501153424 | 62 | 3 | 3.0 | 9.0 | 0.06 | 0.43 | 0.43 | 98 | 1004.0 |
| 20260501153322 | 62 | 25 | 3.0 | 9.0 | 0.07 | 0.43 | 0.43 | 97 | 1004.0 |
| 20260501153223 | 62 | 8 | 4.0 | 9.0 | 0.07 | 0.43 | 0.43 | 97 | 1004.1 |
| 20260501153122 | 62 | 21 | 4.0 | 9.0 | 0.07 | 0.43 | 0.43 | 97 | 1004.0 |
| 20260501153022 | 62 | 18 | 4.0 | 6.0 | 0.07 | 0.43 | 0.43 | 97 | 1004.1 |
| 20260501152923 | 62 | 17 | 4.0 | 6.0 | 0.06 | 0.42 | 0.42 | 97 | 1004.1 |
| 20260501152822 | 62 | 0 | 4.0 | 6.0 | 0.06 | 0.42 | 0.42 | 97 | 1004.2 |
| 20260501152722 | 62 | 0 | 4.0 | 5.0 | 0.06 | 0.42 | 0.42 | 98 | 1004.2 |
| 20260501152623 | 62 | 7 | 4.0 | 5.0 | 0.06 | 0.42 | 0.42 | 98 | 1004.2 |
| 20260501152523 | 62 | 4 | 4.0 | 6.0 | 0.06 | 0.42 | 0.42 | 98 | 1004.2 |
| 20260501152423 | 62 | 23 | 4.0 | 6.0 | 0.06 | 0.42 | 0.42 | 98 | 1004.1 |
| 20260501152322 | 62 | 6 | 4.0 | 6.0 | 0.06 | 0.42 | 0.42 | 98 | 1004.1 |
| 20260501152223 | 62 | 1 | 4.0 | 6.0 | 0.07 | 0.42 | 0.42 | 98 | 1004.0 |
| 20260501152122 | 62 | 39 | 3.0 | 6.0 | 0.07 | 0.41 | 0.41 | 98 | 1003.9 |
| 20260501152022 | 62 | 23 | 3.0 | 6.0 | 0.06 | 0.41 | 0.41 | 98 | 1003.8 |
| 20260501151923 | 62 | 34 | 3.0 | 6.0 | 0.06 | 0.41 | 0.41 | 98 | 1003.8 |
| 20260501151822 | 62 | 28 | 3.0 | 6.0 | 0.06 | 0.41 | 0.41 | 98 | 1003.8 |
| 20260501151722 | 62 | 27 | 4.0 | 6.0 | 0.06 | 0.41 | 0.41 | 98 | 1003.7 |
| 20260501151622 | 62 | 45 | 4.0 | 6.0 | 0.06 | 0.41 | 0.41 | 98 | 1003.7 |
| 20260501151523 | 62 | 35 | 4.0 | 5.0 | 0.06 | 0.41 | 0.41 | 98 | 1003.8 |
| 20260501151422 | 62 | 16 | 3.0 | 5.0 | 0.06 | 0.41 | 0.41 | 98 | 1003.7 |
| 20260501151322 | 62 | 28 | 3.0 | 5.0 | 0.06 | 0.41 | 0.41 | 98 | 1003.7 |
| 20260501151221 | 62 | 23 | 3.0 | 5.0 | 0.06 | 0.41 | 0.41 | 98 | 1003.6 |
| 20260501151122 | 62 | 24 | 3.0 | 5.0 | 0.05 | 0.40 | 0.40 | 98 | 1003.6 |
| 20260501151022 | 62 | 28 | 2.0 | 7.0 | 0.06 | 0.40 | 0.40 | 98 | 1003.6 |
| 20260501150921 | 62 | 71 | 2.0 | 7.0 | 0.06 | 0.40 | 0.40 | 97 | 1003.7 |
| 20260501150823 | 62 | 71 | 2.0 | 7.0 | 0.06 | 0.40 | 0.40 | 97 | 1003.7 |
| 20260501150721 | 62 | 65 | 2.0 | 10.0 | 0.06 | 0.40 | 0.40 | 97 | 1003.7 |
| 20260501150622 | 62 | 71 | 3.0 | 10.0 | 0.06 | 0.40 | 0.40 | 97 | 1003.8 |
| 20260501150522 | 62 | 59 | 3.0 | 10.0 | 0.06 | 0.40 | 0.40 | 97 | 1003.8 |
| 20260501150421 | 62 | 78 | 3.0 | 10.0 | 0.06 | 0.40 | 0.40 | 98 | 1003.7 |
| 20260501150322 | 62 | 125 | 4.0 | 10.0 | 0.06 | 0.40 | 0.40 | 98 | 1003.7 |
| 20260501150221 | 62 | 79 | 3.0 | 10.0 | 0.05 | 0.39 | 0.39 | 98 | 1003.7 |
| 20260501150123 | 62 | 92 | 2.0 | 10.0 | 0.06 | 0.39 | 0.39 | 98 | 1003.6 |
| 20260501150021 | 62 | 85 | 2.0 | 10.0 | 0.06 | 0.39 | 0.39 | 98 | 1003.4 |
| 20260501145921 | 62 | 86 | 2.0 | 10.0 | 0.06 | 0.39 | 0.39 | 98 | 1003.2 |
| 20260501145823 | 62 | 86 | 4.0 | 10.0 | 0.06 | 0.39 | 0.39 | 98 | 1003.2 |
| 20260501145721 | 62 | 83 | 3.0 | 7.0 | 0.06 | 0.39 | 0.39 | 98 | 1003.1 |
| 20260501145621 | 62 | 90 | 3.0 | 7.0 | 0.06 | 0.39 | 0.39 | 98 | 1003.1 |
| 20260501145522 | 62 | 62 | 3.0 | 7.0 | 0.06 | 0.39 | 0.39 | 98 | 1003.1 |
| 20260501145422 | 62 | 76 | 2.0 | 7.0 | 0.06 | 0.39 | 0.39 | 98 | 1003.1 |
| 20260501145321 | 62 | 76 | 3.0 | 7.0 | 0.06 | 0.39 | 0.39 | 98 | 1002.9 |
| 20260501145221 | 62 | 76 | 2.0 | 7.0 | 0.05 | 0.38 | 0.38 | 98 | 1002.9 |
| 20260501145122 | 62 | 78 | 2.0 | 7.0 | 0.06 | 0.38 | 0.38 | 97 | 1002.8 |
| 20260501145021 | 62 | 93 | 2.0 | 7.0 | 0.06 | 0.38 | 0.38 | 97 | 1002.9 |
| 20260501144921 | 62 | 68 | 3.0 | 7.0 | 0.06 | 0.38 | 0.38 | 97 | 1002.9 |
| 20260501144821 | 62 | 51 | 3.0 | 7.0 | 0.06 | 0.38 | 0.38 | 97 | 1002.9 |
| 20260501144722 | 62 | 92 | 2.0 | 7.0 | 0.06 | 0.38 | 0.38 | 97 | 1003.0 |